Wetterdaten: Mittwoch, 04.11.2020
Datum Zeit Temp. Aussen Temp. o. S. Temp +5cm Feuchte Auss Luftdruck Regen Sonnenschein Regendauer Solar Windben Empfang
04.11.2020 00:00 7,0 C 6,1 C 5,6 C 87 % 1026,0 hPa 0,0 l/m 0 min 0 min 0 W/m 3,2 km/h (1 Bft) 100,00 %
04.11.2020 00:02 7,0 C 6,1 C 5,6 C 87 % 1026,0 hPa 0,0 l/m 0 min 0 min 0 W/m 12,9 km/h (3 Bft) 100,00 %
04.11.2020 00:04 7,0 C 6,1 C 5,0 C 87 % 1026,0 hPa 0,0 l/m 0 min 0 min 0 W/m 12,9 km/h (3 Bft) 100,00 %
04.11.2020 00:08 7,0 C 6,1 C 5,6 C 88 % 1026,1 hPa 0,0 l/m 0 min 0 min 0 W/m 12,9 km/h (3 Bft) 100,00 %
04.11.2020 00:10 7,0 C 6,1 C 5,0 C 88 % 1026,1 hPa 0,0 l/m 0 min 0 min 0 W/m 3,2 km/h (1 Bft) 100,00 %
04.11.2020 00:12 7,0 C 6,1 C 5,6 C 88 % 1026,1 hPa 0,0 l/m 0 min 0 min 0 W/m 19,3 km/h (3 Bft) 100,00 %
04.11.2020 00:14 6,9 C 6,1 C 5,0 C 88 % 1026,1 hPa 0,0 l/m 0 min 0 min 0 W/m 6,4 km/h (2 Bft) 100,00 %
04.11.2020 00:16 6,9 C 6,1 C 5,0 C 88 % 1026,2 hPa 0,0 l/m 0 min 0 min 0 W/m 9,7 km/h (2 Bft) 97,87 %
04.11.2020 00:18 6,9 C 6,1 C 5,0 C 88 % 1026,2 hPa 0,0 l/m 0 min 0 min 0 W/m 9,7 km/h (2 Bft) 100,00 %
04.11.2020 00:20 6,9 C 6,1 C 5,0 C 88 % 1026,3 hPa 0,0 l/m 0 min 0 min 0 W/m 16,1 km/h (3 Bft) 100,00 %
04.11.2020 00:22 6,9 C 6,1 C 5,0 C 88 % 1026,2 hPa 0,0 l/m 0 min 0 min 0 W/m 12,9 km/h (3 Bft) 100,00 %
04.11.2020 00:24 6,9 C 6,1 C 5,0 C 88 % 1026,3 hPa 0,0 l/m 0 min 0 min 0 W/m 19,3 km/h (3 Bft) 100,00 %
04.11.2020 00:26 6,8 C 6,1 C 5,0 C 88 % 1026,3 hPa 0,0 l/m 0 min 0 min 0 W/m 12,9 km/h (3 Bft) 97,87 %
04.11.2020 00:28 6,8 C 6,1 C 5,0 C 88 % 1026,3 hPa 0,0 l/m 0 min 0 min 0 W/m 3,2 km/h (1 Bft) 97,87 %
04.11.2020 00:30 6,8 C 6,1 C 5,0 C 88 % 1026,3 hPa 0,0 l/m 0 min 0 min 0 W/m 3,2 km/h (1 Bft) 100,00 %
04.11.2020 00:32 6,8 C 5,6 C 5,0 C 88 % 1026,4 hPa 0,0 l/m 0 min 0 min 0 W/m 3,2 km/h (1 Bft) 100,00 %
04.11.2020 00:34 6,8 C 5,6 C 5,0 C 88 % 1026,4 hPa 0,0 l/m 0 min 0 min 0 W/m 12,9 km/h (3 Bft) 100,00 %
04.11.2020 00:36 6,8 C 5,6 C 5,0 C 88 % 1026,4 hPa 0,0 l/m 0 min 0 min 0 W/m 6,4 km/h (2 Bft) 95,74 %
04.11.2020 00:38 6,8 C 5,6 C 5,0 C 88 % 1026,5 hPa 0,0 l/m 0 min 0 min 0 W/m 3,2 km/h (1 Bft) 82,98 %
04.11.2020 00:40 6,7 C 5,6 C 5,0 C 88 % 1026,5 hPa 0,0 l/m 0 min 0 min 0 W/m 16,1 km/h (3 Bft) 74,47 %
04.11.2020 00:42 6,7 C 5,6 C 5,0 C 89 % 1026,5 hPa 0,0 l/m 0 min 0 min 0 W/m 6,4 km/h (2 Bft) 100,00 %
04.11.2020 00:44 6,7 C 5,6 C 5,0 C 89 % 1026,6 hPa 0,0 l/m 0 min 0 min 0 W/m 6,4 km/h (2 Bft) 100,00 %
04.11.2020 00:46 6,6 C 5,6 C 5,0 C 89 % 1026,5 hPa 0,0 l/m 0 min 0 min 0 W/m 6,4 km/h (2 Bft) 97,87 %
04.11.2020 00:48 6,6 C 5,6 C 5,0 C 89 % 1026,6 hPa 0,0 l/m 0 min 0 min 0 W/m 3,2 km/h (1 Bft) 100,00 %
04.11.2020 00:50 6,6 C 5,6 C 5,0 C 89 % 1026,6 hPa 0,0 l/m 0 min 0 min 0 W/m 3,2 km/h (1 Bft) 100,00 %
04.11.2020 00:52 6,6 C 5,6 C 5,0 C 89 % 1026,7 hPa 0,0 l/m 0 min 0 min 0 W/m 12,9 km/h (3 Bft) 97,87 %
04.11.2020 00:54 6,6 C 5,6 C 5,0 C 89 % 1026,7 hPa 0,0 l/m 0 min 0 min 0 W/m 3,2 km/h (1 Bft) 97,83 %
04.11.2020 00:56 6,6 C 5,6 C 5,0 C 89 % 1026,7 hPa 0,0 l/m 0 min 0 min 0 W/m 6,4 km/h (2 Bft) 97,87 %
04.11.2020 00:58 6,6 C 5,6 C 5,0 C 89 % 1026,7 hPa 0,0 l/m 0 min 0 min 0 W/m 3,2 km/h (1 Bft) 97,87 %
04.11.2020 01:00 6,5 C 5,6 C 5,0 C 89 % 1026,8 hPa 0,0 l/m 0 min 0 min 0 W/m 3,2 km/h (1 Bft) 95,74 %
04.11.2020 01:02 6,5 C 5,6 C 5,0 C 89 % 1026,7 hPa 0,0 l/m 0 min 0 min 0 W/m 3,2 km/h (1 Bft) 94,44 %
04.11.2020 01:04 6,5 C 5,6 C 5,0 C 89 % 1026,7 hPa 0,0 l/m 0 min 0 min 0 W/m 3,2 km/h (1 Bft) 97,87 %
04.11.2020 01:06 6,5 C 5,6 C 5,0 C 89 % 1026,7 hPa 0,0 l/m 0 min 0 min 0 W/m 16,1 km/h (3 Bft) 97,87 %
04.11.2020 01:08 6,5 C 5,6 C 5,0 C 89 % 1026,8 hPa 0,0 l/m 0 min 0 min 0 W/m 16,1 km/h (3 Bft) 96,55 %
04.11.2020 01:10 6,5 C 5,6 C 5,0 C 89 % 1026,7 hPa 0,0 l/m 0 min 0 min 0 W/m 12,9 km/h (3 Bft) 97,14 %
04.11.2020 01:12 6,5 C 5,6 C 5,0 C 90 % 1026,8 hPa 0,0 l/m 0 min 0 min 0 W/m 6,4 km/h (2 Bft) 97,87 %
04.11.2020 01:14 6,4 C 5,6 C 5,0 C 89 % 1026,8 hPa 0,0 l/m 0 min 0 min 0 W/m 3,2 km/h (1 Bft) 97,87 %
04.11.2020 01:16 6,4 C 5,6 C 5,0 C 90 % 1026,8 hPa 0,0 l/m 0 min 0 min 0 W/m 6,4 km/h (2 Bft) 97,87 %
04.11.2020 01:18 6,4 C 5,6 C 5,0 C 90 % 1026,8 hPa 0,0 l/m 0 min 0 min 0 W/m 6,4 km/h (2 Bft) 95,74 %
04.11.2020 01:20 6,4 C 5,6 C 5,0 C 90 % 1026,8 hPa 0,0 l/m 0 min 0 min 0 W/m 16,1 km/h (3 Bft) 97,87 %
04.11.2020 01:22 6,4 C 5,6 C 5,0 C 90 % 1026,8 hPa 0,0 l/m 0 min 0 min 0 W/m 12,9 km/h (3 Bft) 95,65 %
04.11.2020 01:24 6,4 C 5,6 C 5,0 C 90 % 1026,7 hPa 0,0 l/m 0 min 0 min 0 W/m 3,2 km/h (1 Bft) 97,87 %
04.11.2020 01:26 6,4 C 5,6 C 5,0 C 90 % 1026,7 hPa 0,0 l/m 0 min 0 min 0 W/m 3,2 km/h (1 Bft) 95,74 %
04.11.2020 01:28 6,4 C 5,6 C 5,0 C 90 % 1026,8 hPa 0,0 l/m 0 min 0 min 0 W/m 12,9 km/h (3 Bft) 95,74 %
04.11.2020 01:30 6,4 C 5,6 C 5,0 C 90 % 1026,8 hPa 0,0 l/m 0 min 0 min 0 W/m 6,4 km/h (2 Bft) 95,74 %
04.11.2020 01:32 6,4 C 5,6 C 5,0 C 90 % 1026,8 hPa 0,0 l/m 0 min 0 min 0 W/m 3,2 km/h (1 Bft) 97,87 %
04.11.2020 01:34 6,4 C 5,6 C 5,0 C 90 % 1026,9 hPa 0,0 l/m 0 min 0 min 0 W/m 3,2 km/h (1 Bft) 95,65 %
04.11.2020 01:36 6,4 C 5,6 C 5,0 C 90 % 1026,9 hPa 0,0 l/m 0 min 0 min 0 W/m 3,2 km/h (1 Bft) 93,62 %
04.11.2020 01:38 6,3 C 5,6 C 5,0 C 90 % 1026,9 hPa 0,0 l/m 0 min 0 min 0 W/m 6,4 km/h (2 Bft) 91,49 %
04.11.2020 01:40 6,3 C 5,6 C 5,0 C 90 % 1026,9 hPa 0,0 l/m 0 min 0 min 0 W/m 6,4 km/h (2 Bft) 93,62 %
04.11.2020 01:42 6,3 C 5,6 C 5,0 C 90 % 1027,0 hPa 0,0 l/m 0 min 0 min 0 W/m 9,7 km/h (2 Bft) 91,49 %
04.11.2020 01:44 6,3 C 5,6 C 4,5 C 90 % 1027,0 hPa 0,0 l/m 0 min 0 min 0 W/m 12,9 km/h (3 Bft) 93,62 %
04.11.2020 01:46 6,3 C 5,6 C 5,0 C 90 % 1027,0 hPa 0,0 l/m 0 min 0 min 0 W/m 6,4 km/h (2 Bft) 91,30 %
04.11.2020 01:48 6,3 C 5,6 C 4,5 C 91 % 1027,0 hPa 0,0 l/m 0 min 0 min 0 W/m 12,9 km/h (3 Bft) 93,62 %
04.11.2020 01:50 6,3 C 5,6 C 4,5 C 90 % 1027,1 hPa 0,0 l/m 0 min 0 min 0 W/m 3,2 km/h (1 Bft) 93,62 %
04.11.2020 01:52 6,2 C 5,0 C 4,5 C 90 % 1027,1 hPa 0,0 l/m 0 min 0 min 0 W/m 3,2 km/h (1 Bft) 91,49 %
04.11.2020 01:54 6,2 C 5,0 C 4,5 C 90 % 1027,1 hPa 0,0 l/m 0 min 0 min 0 W/m 3,2 km/h (1 Bft) 93,62 %
04.11.2020 01:56 6,2 C 5,0 C 4,5 C 91 % 1027,1 hPa 0,0 l/m 0 min 0 min 0 W/m 3,2 km/h (1 Bft) 91,30 %
04.11.2020 01:58 6,2 C 5,0 C 4,5 C 91 % 1027,1 hPa 0,0 l/m 0 min 0 min 0 W/m 6,4 km/h (2 Bft) 91,49 %
04.11.2020 02:00 6,1 C 5,0 C 4,5 C 91 % 1027,1 hPa 0,0 l/m 0 min 0 min 0 W/m 3,2 km/h (1 Bft) 93,62 %
04.11.2020 02:02 6,1 C 5,0 C 4,5 C 91 % 1027,2 hPa 0,0 l/m 0 min 0 min 0 W/m 3,2 km/h (1 Bft) 95,83 %
04.11.2020 02:04 6,1 C 5,0 C 4,5 C 91 % 1027,2 hPa 0,0 l/m 0 min 0 min 0 W/m 6,4 km/h (2 Bft) 91,49 %
04.11.2020 02:06 6,1 C 5,0 C 4,5 C 91 % 1027,2 hPa 0,0 l/m 0 min 0 min 0 W/m 3,2 km/h (1 Bft) 95,74 %
04.11.2020 02:08 6,1 C 5,0 C 4,5 C 91 % 1027,3 hPa 0,0 l/m 0 min 0 min 0 W/m 3,2 km/h (1 Bft) 95,65 %
04.11.2020 02:10 6,0 C 5,0 C 4,5 C 91 % 1027,3 hPa 0,0 l/m 0 min 0 min 0 W/m 3,2 km/h (1 Bft) 95,74 %
04.11.2020 02:12 6,0 C 5,0 C 4,5 C 91 % 1027,3 hPa 0,0 l/m 0 min 0 min 0 W/m 0,0 km/h (0 Bft) 95,74 %
04.11.2020 02:14 6,0 C 5,0 C 4,5 C 91 % 1027,3 hPa 0,0 l/m 0 min 0 min 0 W/m 0,0 km/h (0 Bft) 95,74 %
04.11.2020 02:16 6,0 C 5,0 C 4,5 C 91 % 1027,3 hPa 0,0 l/m 0 min 0 min 0 W/m 3,2 km/h (1 Bft) 93,62 %
04.11.2020 02:18 6,0 C 5,0 C 4,5 C 91 % 1027,3 hPa 0,0 l/m 0 min 0 min 0 W/m 3,2 km/h (1 Bft) 95,74 %
04.11.2020 02:20 6,0 C 5,0 C 4,5 C 91 % 1027,4 hPa 0,0 l/m 0 min 0 min 0 W/m 0,0 km/h (0 Bft) 95,65 %
04.11.2020 02:22 6,0 C 5,0 C 4,5 C 91 % 1027,4 hPa 0,0 l/m 0 min 0 min 0 W/m 0,0 km/h (0 Bft) 95,74 %
04.11.2020 02:24 6,0 C 5,0 C 4,5 C 91 % 1027,5 hPa 0,0 l/m 0 min 0 min 0 W/m 3,2 km/h (1 Bft) 97,83 %
04.11.2020 02:26 5,9 C 5,0 C 4,5 C 91 % 1027,4 hPa 0,0 l/m 0 min 0 min 0 W/m 3,2 km/h (1 Bft) 97,87 %
04.11.2020 02:28 5,9 C 5,0 C 4,5 C 91 % 1027,5 hPa 0,0 l/m 0 min 0 min 0 W/m 0,0 km/h (0 Bft) 97,87 %
04.11.2020 02:30 5,9 C 4,4 C 3,9 C 91 % 1027,4 hPa 0,0 l/m 0 min 0 min 0 W/m 0,0 km/h (0 Bft) 95,65 %
04.11.2020 02:32 5,9 C 4,4 C 3,9 C 91 % 1027,5 hPa 0,0 l/m 0 min 0 min 0 W/m 0,0 km/h (0 Bft) 95,83 %
04.11.2020 02:34 5,9 C 4,4 C 3,9 C 91 % 1027,5 hPa 0,0 l/m 0 min 0 min 0 W/m 0,0 km/h (0 Bft) 100,00 %
04.11.2020 02:36 5,8 C 4,4 C 3,9 C 91 % 1027,5 hPa 0,0 l/m 0 min 0 min 0 W/m 3,2 km/h (1 Bft) 97,87 %
04.11.2020 02:38 5,8 C 4,4 C 3,9 C 91 % 1027,5 hPa 0,0 l/m 0 min 0 min 0 W/m 3,2 km/h (1 Bft) 95,74 %
04.11.2020 02:40 5,8 C 4,4 C 3,9 C 91 % 1027,5 hPa 0,0 l/m 0 min 0 min 0 W/m 0,0 km/h (0 Bft) 97,87 %
04.11.2020 02:42 5,8 C 4,4 C 3,9 C 91 % 1027,5 hPa 0,0 l/m 0 min 0 min 0 W/m 0,0 km/h (0 Bft) 97,83 %
04.11.2020 02:44 5,8 C 4,4 C 3,9 C 91 % 1027,6 hPa 0,0 l/m 0 min 0 min 0 W/m 0,0 km/h (0 Bft) 100,00 %
04.11.2020 02:46 5,7 C 4,4 C 3,9 C 91 % 1027,6 hPa 0,0 l/m 0 min 0 min 0 W/m 3,2 km/h (1 Bft) 97,87 %
04.11.2020 02:48 5,7 C 4,4 C 3,9 C 91 % 1027,6 hPa 0,0 l/m 0 min 0 min 0 W/m 3,2 km/h (1 Bft) 97,87 %
04.11.2020 02:50 5,7 C 4,4 C 3,9 C 91 % 1027,7 hPa 0,0 l/m 0 min 0 min 0 W/m 3,2 km/h (1 Bft) 100,00 %
04.11.2020 02:52 5,6 C 4,4 C 3,9 C 91 % 1027,6 hPa 0,0 l/m 0 min 0 min 0 W/m 0,0 km/h (0 Bft) 100,00 %
04.11.2020 02:54 5,6 C 4,4 C 3,9 C 91 % 1027,7 hPa 0,0 l/m 0 min 0 min 0 W/m 3,2 km/h (1 Bft) 100,00 %
04.11.2020 02:56 5,6 C 4,4 C 3,9 C 91 % 1027,7 hPa 0,0 l/m 0 min 0 min 0 W/m 0,0 km/h (0 Bft) 100,00 %
04.11.2020 02:58 5,6 C 4,4 C 3,9 C 92 % 1027,6 hPa 0,0 l/m 0 min 0 min 0 W/m 0,0 km/h (0 Bft) 100,00 %
04.11.2020 03:00 5,6 C 4,4 C 3,9 C 92 % 1027,7 hPa 0,0 l/m 0 min 0 min 0 W/m 0,0 km/h (0 Bft) 100,00 %
04.11.2020 03:02 5,5 C 4,4 C 3,9 C 92 % 1027,7 hPa 0,0 l/m 0 min 0 min 0 W/m 6,4 km/h (2 Bft) 100,00 %
04.11.2020 03:04 5,5 C 4,4 C 3,9 C 92 % 1027,7 hPa 0,0 l/m 0 min 0 min 0 W/m 3,2 km/h (1 Bft) 100,00 %
04.11.2020 03:06 5,5 C 4,4 C 3,9 C 92 % 1027,7 hPa 0,0 l/m 0 min 0 min 0 W/m 0,0 km/h (0 Bft) 100,00 %
04.11.2020 03:08 5,5 C 4,4 C 3,9 C 92 % 1027,7 hPa 0,0 l/m 0 min 0 min 0 W/m 6,4 km/h (2 Bft) 100,00 %
04.11.2020 03:10 5,5 C 4,4 C 3,9 C 92 % 1027,7 hPa 0,0 l/m 0 min 0 min 0 W/m 0,0 km/h (0 Bft) 100,00 %
04.11.2020 03:12 5,5 C 4,4 C 3,9 C 92 % 1027,7 hPa 0,0 l/m 0 min 0 min 0 W/m 0,0 km/h (0 Bft) 100,00 %
04.11.2020 03:14 5,5 C 4,4 C 3,9 C 92 % 1027,7 hPa 0,0 l/m 0 min 0 min 0 W/m 0,0 km/h (0 Bft) 100,00 %
04.11.2020 03:16 5,5 C 4,4 C 4,5 C 92 % 1027,8 hPa 0,0 l/m 0 min 0 min 0 W/m 0,0 km/h (0 Bft) 100,00 %
04.11.2020 03:18 5,5 C 4,4 C 3,9 C 92 % 1027,7 hPa 0,0 l/m 0 min 0 min 0 W/m 0,0 km/h (0 Bft) 100,00 %
04.11.2020 03:20 5,5 C 4,4 C 3,9 C 92 % 1027,7 hPa 0,0 l/m 0 min 0 min 0 W/m 0,0 km/h (0 Bft) 100,00 %
04.11.2020 03:22 5,4 C 5,0 C 4,5 C 92 % 1027,7 hPa 0,0 l/m 0 min 0 min 0 W/m 0,0 km/h (0 Bft) 100,00 %
04.11.2020 03:24 5,4 C 4,4 C 3,9 C 92 % 1027,7 hPa 0,0 l/m 0 min 0 min 0 W/m 0,0 km/h (0 Bft) 95,74 %
04.11.2020 03:26 5,4 C 4,4 C 3,9 C 92 % 1027,7 hPa 0,0 l/m 0 min 0 min 0 W/m 0,0 km/h (0 Bft) 97,87 %
04.11.2020 03:28 5,4 C 4,4 C 3,9 C 92 % 1027,8 hPa 0,0 l/m 0 min 0 min 0 W/m 0,0 km/h (0 Bft) 100,00 %
04.11.2020 03:30 5,4 C 4,4 C 3,9 C 92 % 1027,8 hPa 0,0 l/m 0 min 0 min 0 W/m 0,0 km/h (0 Bft) 100,00 %
04.11.2020 03:32 5,4 C 4,4 C 3,9 C 93 % 1027,9 hPa 0,0 l/m 0 min 0 min 0 W/m 0,0 km/h (0 Bft) 100,00 %
04.11.2020 03:34 5,4 C 4,4 C 3,9 C 93 % 1027,9 hPa 0,0 l/m 0 min 0 min 0 W/m 0,0 km/h (0 Bft) 100,00 %
04.11.2020 03:36 5,4 C 4,4 C 3,9 C 93 % 1027,9 hPa 0,0 l/m 0 min 0 min 0 W/m 0,0 km/h (0 Bft) 97,87 %
04.11.2020 03:38 5,4 C 4,4 C 3,9 C 93 % 1027,9 hPa 0,0 l/m 0 min 0 min 0 W/m 0,0 km/h (0 Bft) 97,87 %
04.11.2020 03:40 5,3 C 4,4 C 3,9 C 93 % 1027,9 hPa 0,0 l/m 0 min 0 min 0 W/m 0,0 km/h (0 Bft) 97,87 %
04.11.2020 03:42 5,3 C 4,4 C 3,9 C 93 % 1027,9 hPa 0,0 l/m 0 min 0 min 0 W/m 3,2 km/h (1 Bft) 97,87 %
04.11.2020 03:44 5,3 C 4,4 C 3,9 C 93 % 1027,9 hPa 0,0 l/m 0 min 0 min 0 W/m 0,0 km/h (0 Bft) 95,65 %
04.11.2020 03:46 5,3 C 4,4 C 3,9 C 93 % 1027,9 hPa 0,0 l/m 0 min 0 min 0 W/m 0,0 km/h (0 Bft) 97,87 %
04.11.2020 03:48 5,3 C 4,4 C 3,9 C 93 % 1027,9 hPa 0,0 l/m 0 min 0 min 0 W/m 0,0 km/h (0 Bft) 95,74 %
04.11.2020 03:50 5,3 C 4,4 C 3,9 C 93 % 1027,9 hPa 0,0 l/m 0 min 0 min 0 W/m 0,0 km/h (0 Bft) 97,87 %
04.11.2020 03:52 5,2 C 4,4 C 3,9 C 93 % 1028,0 hPa 0,0 l/m 0 min 0 min 0 W/m 0,0 km/h (0 Bft) 97,87 %
04.11.2020 03:54 5,2 C 3,9 C 3,9 C 93 % 1028,0 hPa 0,0 l/m 0 min 0 min 0 W/m 0,0 km/h (0 Bft) 97,87 %
04.11.2020 03:56 5,2 C 3,9 C 3,9 C 93 % 1028,0 hPa 0,0 l/m 0 min 0 min 0 W/m 0,0 km/h (0 Bft) 97,83 %
04.11.2020 03:58 5,2 C 3,9 C 3,9 C 93 % 1028,0 hPa 0,0 l/m 0 min 0 min 0 W/m 0,0 km/h (0 Bft) 97,87 %
04.11.2020 04:00 5,1 C 3,9 C 3,4 C 93 % 1028,1 hPa 0,0 l/m 0 min 0 min 0 W/m 0,0 km/h (0 Bft) 97,87 %
04.11.2020 04:02 5,1 C 3,9 C 3,9 C 93 % 1028,1 hPa 0,0 l/m 0 min 0 min 0 W/m 0,0 km/h (0 Bft) 96,77 %
04.11.2020 04:04 5,1 C 4,4 C 3,9 C 93 % 1028,0 hPa 0,0 l/m 0 min 0 min 0 W/m 0,0 km/h (0 Bft) 97,87 %
04.11.2020 04:06 5,1 C 4,4 C 3,9 C 93 % 1028,1 hPa 0,0 l/m 0 min 0 min 0 W/m 0,0 km/h (0 Bft) 97,87 %
04.11.2020 04:08 5,1 C 4,4 C 3,9 C 93 % 1028,1 hPa 0,0 l/m 0 min 0 min 0 W/m 0,0 km/h (0 Bft) 97,83 %
04.11.2020 04:10 5,1 C 3,9 C 3,9 C 93 % 1028,1 hPa 0,0 l/m 0 min 0 min 0 W/m 0,0 km/h (0 Bft) 97,87 %
04.11.2020 04:12 5,1 C 3,9 C 3,9 C 93 % 1028,1 hPa 0,0 l/m 0 min 0 min 0 W/m 0,0 km/h (0 Bft) 100,00 %
04.11.2020 04:14 5,1 C 3,9 C 3,9 C 93 % 1028,1 hPa 0,0 l/m 0 min 0 min 0 W/m 0,0 km/h (0 Bft) 100,00 %
04.11.2020 04:16 5,0 C 3,9 C 3,9 C 93 % 1028,1 hPa 0,0 l/m 0 min 0 min 0 W/m 0,0 km/h (0 Bft) 100,00 %
04.11.2020 04:18 5,0 C 4,4 C 3,9 C 93 % 1028,1 hPa 0,0 l/m 0 min 0 min 0 W/m 0,0 km/h (0 Bft) 100,00 %
04.11.2020 04:20 5,0 C 4,4 C 3,9 C 93 % 1028,1 hPa 0,0 l/m 0 min 0 min 0 W/m 0,0 km/h (0 Bft) 100,00 %
04.11.2020 04:22 5,0 C 4,4 C 3,9 C 93 % 1028,1 hPa 0,0 l/m 0 min 0 min 0 W/m 0,0 km/h (0 Bft) 100,00 %
04.11.2020 04:24 5,0 C 4,4 C 3,9 C 93 % 1028,1 hPa 0,0 l/m 0 min 0 min 0 W/m 0,0 km/h (0 Bft) 100,00 %
04.11.2020 04:26 5,0 C 4,4 C 3,9 C 93 % 1028,1 hPa 0,0 l/m 0 min 0 min 0 W/m 0,0 km/h (0 Bft) 97,87 %
04.11.2020 04:28 5,0 C 4,4 C 3,9 C 93 % 1028,2 hPa 0,0 l/m 0 min 0 min 0 W/m 0,0 km/h (0 Bft) 100,00 %
04.11.2020 04:30 5,0 C 4,4 C 3,9 C 94 % 1028,1 hPa 0,0 l/m 0 min 0 min 0 W/m 3,2 km/h (1 Bft) 100,00 %
04.11.2020 04:32 5,0 C 3,9 C 3,9 C 94 % 1028,1 hPa 0,0 l/m 0 min 0 min 0 W/m 0,0 km/h (0 Bft) 100,00 %
04.11.2020 04:34 5,0 C 3,9 C 3,9 C 94 % 1028,1 hPa 0,0 l/m 0 min 0 min 0 W/m 0,0 km/h (0 Bft) 100,00 %
04.11.2020 04:36 5,0 C 3,9 C 3,9 C 94 % 1028,1 hPa 0,0 l/m 0 min 0 min 0 W/m 3,2 km/h (1 Bft) 95,65 %
04.11.2020 04:38 5,0 C 3,9 C 3,9 C 94 % 1028,1 hPa 0,0 l/m 0 min 0 min 0 W/m 3,2 km/h (1 Bft) 100,00 %
04.11.2020 04:40 5,0 C 3,9 C 3,9 C 94 % 1028,1 hPa 0,0 l/m 0 min 0 min 0 W/m 3,2 km/h (1 Bft) 100,00 %
04.11.2020 04:42 5,0 C 3,9 C 3,9 C 94 % 1028,1 hPa 0,0 l/m 0 min 0 min 0 W/m 3,2 km/h (1 Bft) 97,87 %
04.11.2020 04:44 5,0 C 3,9 C 3,9 C 94 % 1028,1 hPa 0,0 l/m 0 min 0 min 0 W/m 0,0 km/h (0 Bft) 100,00 %
04.11.2020 04:46 5,0 C 3,9 C 3,9 C 94 % 1028,2 hPa 0,0 l/m 0 min 0 min 0 W/m 0,0 km/h (0 Bft) 100,00 %
04.11.2020 04:48 5,0 C 3,9 C 3,9 C 94 % 1028,2 hPa 0,0 l/m 0 min 0 min 0 W/m 0,0 km/h (0 Bft) 100,00 %
04.11.2020 04:50 4,9 C 3,9 C 3,9 C 94 % 1028,2 hPa 0,0 l/m 0 min 0 min 0 W/m 0,0 km/h (0 Bft) 100,00 %
04.11.2020 04:52 4,9 C 3,9 C 3,9 C 94 % 1028,3 hPa 0,0 l/m 0 min 0 min 0 W/m 0,0 km/h (0 Bft) 95,74 %
04.11.2020 04:54 4,9 C 3,9 C 3,9 C 94 % 1028,2 hPa 0,0 l/m 0 min 0 min 0 W/m 0,0 km/h (0 Bft) 95,74 %
04.11.2020 04:56 4,9 C 3,9 C 3,4 C 94 % 1028,2 hPa 0,0 l/m 0 min 0 min 0 W/m 0,0 km/h (0 Bft) 95,74 %
04.11.2020 04:58 4,9 C 3,9 C 3,4 C 94 % 1028,3 hPa 0,0 l/m 0 min 0 min 0 W/m 3,2 km/h (1 Bft) 97,87 %
04.11.2020 05:00 4,9 C 3,9 C 3,4 C 94 % 1028,3 hPa 0,0 l/m 0 min 0 min 0 W/m 0,0 km/h (0 Bft) 97,83 %
04.11.2020 05:02 4,9 C 3,9 C 3,4 C 94 % 1028,3 hPa 0,0 l/m 0 min 0 min 0 W/m 0,0 km/h (0 Bft) 95,83 %
04.11.2020 05:04 4,9 C 3,9 C 3,4 C 94 % 1028,4 hPa 0,0 l/m 0 min 0 min 0 W/m 3,2 km/h (1 Bft) 97,87 %
04.11.2020 05:06 4,9 C 3,9 C 3,4 C 94 % 1028,4 hPa 0,0 l/m 0 min 0 min 0 W/m 6,4 km/h (2 Bft) 97,87 %
04.11.2020 05:08 4,9 C 3,9 C 3,4 C 94 % 1028,4 hPa 0,0 l/m 0 min 0 min 0 W/m 3,2 km/h (1 Bft) 95,74 %
04.11.2020 05:10 4,8 C 3,9 C 3,4 C 94 % 1028,4 hPa 0,0 l/m 0 min 0 min 0 W/m 3,2 km/h (1 Bft) 95,74 %
04.11.2020 05:12 4,8 C 3,9 C 3,4 C 94 % 1028,5 hPa 0,0 l/m 0 min 0 min 0 W/m 0,0 km/h (0 Bft) 97,83 %
04.11.2020 05:14 4,8 C 3,9 C 3,4 C 94 % 1028,5 hPa 0,0 l/m 0 min 0 min 0 W/m 3,2 km/h (1 Bft) 97,87 %
04.11.2020 05:16 4,8 C 3,9 C 3,4 C 94 % 1028,5 hPa 0,0 l/m 0 min 0 min 0 W/m 3,2 km/h (1 Bft) 97,87 %
04.11.2020 05:18 4,8 C 3,9 C 3,4 C 94 % 1028,5 hPa 0,0 l/m 0 min 0 min 0 W/m 3,2 km/h (1 Bft) 97,87 %
04.11.2020 05:20 4,8 C 3,9 C 3,4 C 94 % 1028,5 hPa 0,0 l/m 0 min 0 min 0 W/m 0,0 km/h (0 Bft) 97,87 %
04.11.2020 05:22 4,8 C 3,9 C 3,4 C 94 % 1028,5 hPa 0,0 l/m 0 min 0 min 0 W/m 0,0 km/h (0 Bft) 97,83 %
04.11.2020 05:24 4,7 C 3,9 C 3,4 C 94 % 1028,5 hPa 0,0 l/m 0 min 0 min 0 W/m 0,0 km/h (0 Bft) 97,87 %
04.11.2020 05:26 4,7 C 3,9 C 3,4 C 94 % 1028,6 hPa 0,0 l/m 0 min 0 min 0 W/m 3,2 km/h (1 Bft) 97,87 %
04.11.2020 05:28 4,7 C 3,9 C 3,4 C 94 % 1028,5 hPa 0,0 l/m 0 min 0 min 0 W/m 0,0 km/h (0 Bft) 95,74 %
04.11.2020 05:30 4,7 C 3,9 C 3,4 C 94 % 1028,5 hPa 0,0 l/m 0 min 0 min 0 W/m 3,2 km/h (1 Bft) 97,87 %
04.11.2020 05:32 4,6 C 3,3 C 3,4 C 94 % 1028,5 hPa 0,0 l/m 0 min 0 min 0 W/m 0,0 km/h (0 Bft) 94,44 %
04.11.2020 05:34 4,6 C 3,3 C 2,8 C 94 % 1028,6 hPa 0,0 l/m 0 min 0 min 0 W/m 0,0 km/h (0 Bft) 95,74 %
04.11.2020 05:36 4,6 C 3,3 C 2,8 C 94 % 1028,6 hPa 0,0 l/m 0 min 0 min 0 W/m 0,0 km/h (0 Bft) 97,87 %
04.11.2020 05:38 4,6 C 3,3 C 2,8 C 94 % 1028,6 hPa 0,0 l/m 0 min 0 min 0 W/m 3,2 km/h (1 Bft) 97,83 %
04.11.2020 05:40 4,6 C 3,3 C 2,8 C 94 % 1028,6 hPa 0,0 l/m 0 min 0 min 0 W/m 0,0 km/h (0 Bft) 95,74 %
04.11.2020 05:42 4,6 C 3,3 C 2,8 C 94 % 1028,6 hPa 0,0 l/m 0 min 0 min 0 W/m 0,0 km/h (0 Bft) 97,87 %
04.11.2020 05:44 4,6 C 3,3 C 2,8 C 94 % 1028,7 hPa 0,0 l/m 0 min 0 min 0 W/m 0,0 km/h (0 Bft) 95,74 %
04.11.2020 05:46 4,5 C 3,3 C 2,8 C 94 % 1028,8 hPa 0,0 l/m 0 min 0 min 0 W/m 0,0 km/h (0 Bft) 93,62 %
04.11.2020 05:48 4,5 C 3,3 C 2,8 C 94 % 1028,8 hPa 0,0 l/m 0 min 0 min 0 W/m 0,0 km/h (0 Bft) 95,65 %
04.11.2020 05:50 4,5 C 3,3 C 2,8 C 94 % 1028,9 hPa 0,0 l/m 0 min 0 min 0 W/m 0,0 km/h (0 Bft) 97,87 %
04.11.2020 05:52 4,5 C 3,3 C 2,8 C 94 % 1028,9 hPa 0,0 l/m 0 min 0 min 0 W/m 0,0 km/h (0 Bft) 97,87 %
04.11.2020 05:54 4,5 C 3,3 C 2,8 C 94 % 1028,9 hPa 0,0 l/m 0 min 0 min 0 W/m 3,2 km/h (1 Bft) 97,87 %
04.11.2020 05:56 4,5 C 3,3 C 2,8 C 94 % 1028,9 hPa 0,0 l/m 0 min 0 min 0 W/m 0,0 km/h (0 Bft) 93,62 %
04.11.2020 05:58 4,5 C 3,3 C 2,8 C 95 % 1028,9 hPa 0,0 l/m 0 min 0 min 0 W/m 0,0 km/h (0 Bft) 95,74 %
04.11.2020 06:00 4,5 C 3,3 C 2,8 C 95 % 1028,9 hPa 0,0 l/m 0 min 0 min 0 W/m 0,0 km/h (0 Bft) 97,83 %
04.11.2020 06:02 4,4 C 3,3 C 2,8 C 95 % 1028,9 hPa 0,0 l/m 0 min 0 min 0 W/m 0,0 km/h (0 Bft) 97,87 %
04.11.2020 06:04 4,4 C 3,3 C 2,8 C 95 % 1029,0 hPa 0,0 l/m 0 min 0 min 0 W/m 0,0 km/h (0 Bft) 95,74 %
04.11.2020 06:08 4,4 C 3,3 C 2,8 C 95 % 1029,0 hPa 0,0 l/m 0 min 0 min 0 W/m 0,0 km/h (0 Bft) 93,75 %
04.11.2020 06:10 4,4 C 3,3 C 2,2 C 95 % 1029,0 hPa 0,0 l/m 0 min 0 min 0 W/m 0,0 km/h (0 Bft) 95,74 %
04.11.2020 06:12 4,4 C 3,3 C 2,2 C 95 % 1029,0 hPa 0,0 l/m 0 min 0 min 0 W/m 0,0 km/h (0 Bft) 95,74 %
04.11.2020 06:14 4,4 C 3,3 C 2,2 C 95 % 1029,0 hPa 0,0 l/m 0 min 0 min 0 W/m 0,0 km/h (0 Bft) 95,74 %
04.11.2020 06:16 4,4 C 3,3 C 2,2 C 95 % 1029,0 hPa 0,0 l/m 0 min 0 min 0 W/m 0,0 km/h (0 Bft) 95,65 %
04.11.2020 06:18 4,3 C 2,8 C 2,2 C 95 % 1029,0 hPa 0,0 l/m 0 min 0 min 0 W/m 0,0 km/h (0 Bft) 97,87 %
04.11.2020 06:20 4,3 C 2,8 C 2,2 C 95 % 1029,0 hPa 0,0 l/m 0 min 0 min 0 W/m 0,0 km/h (0 Bft) 97,87 %
04.11.2020 06:22 4,3 C 2,8 C 2,2 C 94 % 1029,0 hPa 0,0 l/m 0 min 0 min 0 W/m 0,0 km/h (0 Bft) 100,00 %
04.11.2020 06:24 4,3 C 2,8 C 2,2 C 94 % 1029,0 hPa 0,0 l/m 0 min 0 min 0 W/m 0,0 km/h (0 Bft) 97,87 %
04.11.2020 06:26 4,3 C 3,3 C 2,2 C 94 % 1029,0 hPa 0,0 l/m 0 min 0 min 0 W/m 0,0 km/h (0 Bft) 97,83 %
04.11.2020 06:28 4,3 C 3,3 C 2,2 C 94 % 1029,0 hPa 0,0 l/m 0 min 0 min 0 W/m 0,0 km/h (0 Bft) 97,87 %
04.11.2020 06:30 4,2 C 3,3 C 2,2 C 94 % 1028,9 hPa 0,0 l/m 0 min 0 min 0 W/m 0,0 km/h (0 Bft) 97,87 %
04.11.2020 06:32 4,2 C 3,3 C 2,2 C 95 % 1029,0 hPa 0,0 l/m 0 min 0 min 0 W/m 0,0 km/h (0 Bft) 95,74 %
04.11.2020 06:34 4,2 C 3,3 C 2,2 C 95 % 1029,1 hPa 0,0 l/m 0 min 0 min 0 W/m 0,0 km/h (0 Bft) 97,87 %
04.11.2020 06:36 4,1 C 3,3 C 2,2 C 95 % 1029,1 hPa 0,0 l/m 0 min 0 min 0 W/m 0,0 km/h (0 Bft) 93,62 %
04.11.2020 06:38 4,1 C 3,3 C 2,2 C 95 % 1029,2 hPa 0,0 l/m 0 min 0 min 0 W/m 0,0 km/h (0 Bft) 97,83 %
04.11.2020 06:40 4,1 C 3,3 C 2,2 C 95 % 1029,2 hPa 0,0 l/m 0 min 0 min 0 W/m 0,0 km/h (0 Bft) 97,87 %
04.11.2020 06:42 4,1 C 3,3 C 2,2 C 95 % 1029,2 hPa 0,0 l/m 0 min 0 min 0 W/m 0,0 km/h (0 Bft) 95,74 %
04.11.2020 06:44 4,1 C 3,3 C 2,2 C 95 % 1029,2 hPa 0,0 l/m 0 min 0 min 0 W/m 0,0 km/h (0 Bft) 97,87 %
04.11.2020 06:46 4,1 C 3,3 C 2,2 C 95 % 1029,2 hPa 0,0 l/m 0 min 0 min 0 W/m 0,0 km/h (0 Bft) 97,87 %
04.11.2020 06:48 4,0 C 3,3 C 2,2 C 95 % 1029,2 hPa 0,0 l/m 0 min 0 min 0 W/m 0,0 km/h (0 Bft) 95,74 %
04.11.2020 06:50 4,0 C 3,3 C 2,2 C 95 % 1029,2 hPa 0,0 l/m 0 min 0 min 0 W/m 0,0 km/h (0 Bft) 97,83 %
04.11.2020 06:52 4,0 C 3,3 C 2,2 C 95 % 1029,2 hPa 0,0 l/m 0 min 0 min 0 W/m 0,0 km/h (0 Bft) 97,87 %
04.11.2020 06:54 4,0 C 3,3 C 2,8 C 95 % 1029,3 hPa 0,0 l/m 0 min 0 min 0 W/m 3,2 km/h (1 Bft) 97,87 %
04.11.2020 06:56 4,0 C 3,3 C 2,8 C 95 % 1029,3 hPa 0,0 l/m 0 min 0 min 0 W/m 3,2 km/h (1 Bft) 97,87 %
04.11.2020 06:58 4,0 C 3,3 C 2,8 C 95 % 1029,3 hPa 0,0 l/m 0 min 0 min 0 W/m 12,9 km/h (3 Bft) 97,87 %
04.11.2020 07:00 4,0 C 3,3 C 2,8 C 95 % 1029,4 hPa 0,0 l/m 0 min 0 min 0 W/m 0,0 km/h (0 Bft) 95,74 %
04.11.2020 07:02 4,0 C 3,3 C 2,8 C 95 % 1029,4 hPa 0,0 l/m 0 min 0 min 0 W/m 0,0 km/h (0 Bft) 97,83 %
04.11.2020 07:04 4,0 C 3,3 C 2,8 C 95 % 1029,4 hPa 0,0 l/m 0 min 0 min 0 W/m 0,0 km/h (0 Bft) 95,74 %
04.11.2020 07:06 4,0 C 3,3 C 2,8 C 95 % 1029,4 hPa 0,0 l/m 0 min 0 min 0 W/m 0,0 km/h (0 Bft) 97,87 %
04.11.2020 07:08 4,0 C 3,3 C 2,8 C 95 % 1029,4 hPa 0,0 l/m 0 min 0 min 0 W/m 0,0 km/h (0 Bft) 97,87 %
04.11.2020 07:10 4,0 C 3,3 C 2,8 C 95 % 1029,5 hPa 0,0 l/m 0 min 0 min 0 W/m 6,4 km/h (2 Bft) 97,87 %
04.11.2020 07:12 4,0 C 3,3 C 2,8 C 95 % 1029,5 hPa 0,0 l/m 0 min 0 min 0 W/m 3,2 km/h (1 Bft) 97,87 %
04.11.2020 07:14 4,0 C 3,3 C 2,8 C 95 % 1029,5 hPa 0,0 l/m 0 min 0 min 0 W/m 3,2 km/h (1 Bft) 95,65 %
04.11.2020 07:16 4,0 C 3,3 C 2,8 C 95 % 1029,5 hPa 0,0 l/m 0 min 0 min 0 W/m 0,0 km/h (0 Bft) 97,87 %
04.11.2020 07:18 4,0 C 3,3 C 2,8 C 95 % 1029,6 hPa 0,0 l/m 0 min 0 min 0 W/m 3,2 km/h (1 Bft) 95,74 %
04.11.2020 07:20 4,0 C 3,3 C 2,8 C 95 % 1029,6 hPa 0,0 l/m 0 min 0 min 0 W/m 0,0 km/h (0 Bft) 97,87 %
04.11.2020 07:22 4,0 C 3,3 C 2,8 C 95 % 1029,6 hPa 0,0 l/m 0 min 0 min 0 W/m 0,0 km/h (0 Bft) 97,87 %
04.11.2020 07:24 4,0 C 3,3 C 2,8 C 95 % 1029,6 hPa 0,0 l/m 0 min 0 min 0 W/m 3,2 km/h (1 Bft) 97,83 %
04.11.2020 07:26 4,0 C 3,3 C 2,8 C 95 % 1029,7 hPa 0,0 l/m 0 min 0 min 0 W/m 0,0 km/h (0 Bft) 97,87 %
04.11.2020 07:28 4,0 C 3,3 C 2,8 C 95 % 1029,7 hPa 0,0 l/m 0 min 0 min 0 W/m 0,0 km/h (0 Bft) 97,87 %
04.11.2020 07:30 4,0 C 3,3 C 2,8 C 95 % 1029,8 hPa 0,0 l/m 0 min 0 min 0 W/m 0,0 km/h (0 Bft) 97,87 %
04.11.2020 07:32 4,0 C 3,3 C 2,8 C 95 % 1029,8 hPa 0,0 l/m 0 min 0 min 0 W/m 3,2 km/h (1 Bft) 91,49 %
04.11.2020 07:34 4,0 C 3,3 C 2,8 C 95 % 1029,9 hPa 0,0 l/m 0 min 0 min 0 W/m 3,2 km/h (1 Bft) 95,74 %
04.11.2020 07:36 4,0 C 3,3 C 2,8 C 95 % 1029,9 hPa 0,0 l/m 0 min 0 min 1 W/m 0,0 km/h (0 Bft) 100,00 %
04.11.2020 07:38 4,0 C 3,3 C 2,8 C 95 % 1029,9 hPa 0,0 l/m 0 min 0 min 5 W/m 3,2 km/h (1 Bft) 97,87 %
04.11.2020 07:40 4,0 C 3,3 C 2,8 C 95 % 1029,9 hPa 0,0 l/m 0 min 0 min 5 W/m 3,2 km/h (1 Bft) 100,00 %
04.11.2020 07:42 4,0 C 3,3 C 2,8 C 95 % 1030,0 hPa 0,0 l/m 0 min 0 min 6 W/m 0,0 km/h (0 Bft) 95,74 %
04.11.2020 07:44 4,0 C 3,3 C 2,8 C 95 % 1030,0 hPa 0,0 l/m 0 min 0 min 7 W/m 3,2 km/h (1 Bft) 97,87 %
04.11.2020 07:46 4,0 C 3,3 C 2,8 C 95 % 1030,0 hPa 0,0 l/m 0 min 0 min 7 W/m 0,0 km/h (0 Bft) 97,87 %
04.11.2020 07:48 4,0 C 3,3 C 2,8 C 96 % 1030,0 hPa 0,0 l/m 0 min 0 min 9 W/m 3,2 km/h (1 Bft) 95,65 %
04.11.2020 07:50 4,0 C 3,3 C 2,8 C 96 % 1030,1 hPa 0,0 l/m 0 min 0 min 10 W/m 6,4 km/h (2 Bft) 95,74 %
04.11.2020 07:52 4,0 C 3,3 C 2,8 C 96 % 1030,1 hPa 0,0 l/m 0 min 0 min 11 W/m 6,4 km/h (2 Bft) 93,62 %
04.11.2020 07:54 4,0 C 3,3 C 2,8 C 96 % 1030,1 hPa 0,0 l/m 0 min 0 min 12 W/m 6,4 km/h (2 Bft) 95,74 %
04.11.2020 07:56 4,0 C 3,3 C 2,8 C 96 % 1030,2 hPa 0,0 l/m 0 min 0 min 12 W/m 0,0 km/h (0 Bft) 97,87 %
04.11.2020 07:58 4,0 C 3,3 C 2,8 C 96 % 1030,2 hPa 0,0 l/m 0 min 0 min 13 W/m 0,0 km/h (0 Bft) 95,74 %
04.11.2020 08:00 4,0 C 3,3 C 2,8 C 96 % 1030,2 hPa 0,0 l/m 0 min 0 min 14 W/m 3,2 km/h (1 Bft) 95,65 %
04.11.2020 08:02 4,0 C 3,3 C 2,8 C 96 % 1030,2 hPa 0,0 l/m 0 min 0 min 15 W/m 0,0 km/h (0 Bft) 95,74 %
04.11.2020 08:04 4,0 C 3,3 C 2,8 C 96 % 1030,3 hPa 0,0 l/m 0 min 0 min 16 W/m 0,0 km/h (0 Bft) 95,74 %
04.11.2020 08:06 4,0 C 3,3 C 2,8 C 96 % 1030,2 hPa 0,0 l/m 0 min 0 min 17 W/m 0,0 km/h (0 Bft) 95,74 %
04.11.2020 08:08 3,9 C 3,3 C 2,8 C 96 % 1030,3 hPa 0,0 l/m 0 min 0 min 18 W/m 0,0 km/h (0 Bft) 93,62 %
04.11.2020 08:10 3,9 C 3,3 C 2,8 C 96 % 1030,3 hPa 0,0 l/m 0 min 0 min 18 W/m 0,0 km/h (0 Bft) 95,74 %
04.11.2020 08:12 3,9 C 3,3 C 2,8 C 96 % 1030,3 hPa 0,0 l/m 0 min 0 min 19 W/m 0,0 km/h (0 Bft) 93,48 %
04.11.2020 08:14 3,9 C 3,3 C 2,8 C 96 % 1030,3 hPa 0,0 l/m 0 min 0 min 20 W/m 0,0 km/h (0 Bft) 95,74 %
04.11.2020 08:16 3,9 C 3,3 C 2,8 C 96 % 1030,3 hPa 0,0 l/m 0 min 0 min 21 W/m 3,2 km/h (1 Bft) 95,74 %
04.11.2020 08:18 3,9 C 3,3 C 2,8 C 96 % 1030,4 hPa 0,0 l/m 0 min 0 min 21 W/m 3,2 km/h (1 Bft) 93,62 %
04.11.2020 08:20 3,9 C 3,3 C 2,8 C 96 % 1030,4 hPa 0,0 l/m 0 min 0 min 22 W/m 0,0 km/h (0 Bft) 97,87 %
04.11.2020 08:22 3,9 C 3,9 C 2,8 C 96 % 1030,5 hPa 0,0 l/m 0 min 0 min 23 W/m 0,0 km/h (0 Bft) 97,83 %
04.11.2020 08:24 4,0 C 3,9 C 3,4 C 96 % 1030,5 hPa 0,0 l/m 0 min 0 min 23 W/m 3,2 km/h (1 Bft) 97,87 %
04.11.2020 08:26 4,0 C 3,9 C 3,4 C 96 % 1030,6 hPa 0,0 l/m 0 min 0 min 25 W/m 3,2 km/h (1 Bft) 95,74 %
04.11.2020 08:28 4,0 C 3,9 C 3,4 C 96 % 1030,6 hPa 0,0 l/m 0 min 0 min 25 W/m 6,4 km/h (2 Bft) 98,11 %
04.11.2020 08:30 4,0 C 3,9 C 3,4 C 96 % 1030,6 hPa 0,0 l/m 0 min 0 min 25 W/m 6,4 km/h (2 Bft) 100,00 %
04.11.2020 08:32 4,0 C 3,9 C 3,4 C 96 % 1030,6 hPa 0,0 l/m 0 min 0 min 26 W/m 0,0 km/h (0 Bft) 97,21 %
04.11.2020 08:34 4,0 C 3,9 C 3,4 C 96 % 1030,7 hPa 0,0 l/m 0 min 0 min 26 W/m 0,0 km/h (0 Bft) 98,36 %
04.11.2020 08:36 4,0 C 4,4 C 3,4 C 96 % 1030,7 hPa 0,0 l/m 0 min 0 min 28 W/m 0,0 km/h (0 Bft) 97,87 %
04.11.2020 08:38 4,0 C 4,4 C 3,4 C 96 % 1030,8 hPa 0,0 l/m 0 min 0 min 28 W/m 0,0 km/h (0 Bft) 97,87 %
04.11.2020 08:40 4,1 C 4,4 C 3,4 C 96 % 1030,7 hPa 0,0 l/m 0 min 0 min 30 W/m 3,2 km/h (1 Bft) 95,74 %
04.11.2020 08:42 4,1 C 4,4 C 3,4 C 96 % 1030,8 hPa 0,0 l/m 0 min 0 min 30 W/m 6,4 km/h (2 Bft) 96,30 %
04.11.2020 08:44 4,1 C 4,4 C 3,4 C 96 % 1030,8 hPa 0,0 l/m 0 min 0 min 31 W/m 6,4 km/h (2 Bft) 97,92 %
04.11.2020 08:46 4,1 C 4,4 C 3,4 C 96 % 1030,8 hPa 0,0 l/m 0 min 0 min 32 W/m 3,2 km/h (1 Bft) 97,30 %
04.11.2020 08:48 4,2 C 4,4 C 3,4 C 96 % 1030,8 hPa 0,0 l/m 0 min 0 min 32 W/m 0,0 km/h (0 Bft) 97,92 %
04.11.2020 08:50 4,2 C 4,4 C 3,4 C 96 % 1030,9 hPa 0,0 l/m 0 min 0 min 32 W/m 0,0 km/h (0 Bft) 100,00 %
04.11.2020 08:52 4,2 C 4,4 C 3,4 C 96 % 1030,9 hPa 0,0 l/m 0 min 0 min 33 W/m 0,0 km/h (0 Bft) 100,00 %
04.11.2020 08:54 4,3 C 4,4 C 3,4 C 96 % 1031,0 hPa 0,0 l/m 0 min 0 min 35 W/m 0,0 km/h (0 Bft) 100,00 %
04.11.2020 08:56 4,3 C 4,4 C 3,9 C 96 % 1031,1 hPa 0,0 l/m 0 min 0 min 37 W/m 3,2 km/h (1 Bft) 97,83 %
04.11.2020 08:58 4,3 C 5,0 C 3,9 C 96 % 1031,1 hPa 0,0 l/m 0 min 0 min 86 W/m 3,2 km/h (1 Bft) 98,15 %
04.11.2020 09:00 4,4 C 6,7 C 3,9 C 96 % 1031,2 hPa 0,0 l/m 2 min 0 min 141 W/m 3,2 km/h (1 Bft) 100,00 %
04.11.2020 09:02 4,4 C 7,2 C 3,9 C 96 % 1031,2 hPa 0,0 l/m 2 min 0 min 147 W/m 3,2 km/h (1 Bft) 100,00 %
04.11.2020 09:04 4,5 C 7,8 C 3,9 C 96 % 1031,2 hPa 0,0 l/m 2 min 0 min 152 W/m 3,2 km/h (1 Bft) 95,92 %
04.11.2020 09:06 4,5 C 7,8 C 3,9 C 97 % 1031,3 hPa 0,0 l/m 2 min 0 min 157 W/m 12,9 km/h (3 Bft) 100,00 %
04.11.2020 09:08 4,6 C 7,8 C 4,5 C 97 % 1031,3 hPa 0,0 l/m 2 min 0 min 163 W/m 6,4 km/h (2 Bft) 100,00 %
04.11.2020 09:10 4,6 C 7,8 C 4,5 C 97 % 1031,3 hPa 0,0 l/m 2 min 0 min 168 W/m 3,2 km/h (1 Bft) 100,00 %
04.11.2020 09:12 4,8 C 8,3 C 4,5 C 97 % 1031,4 hPa 0,0 l/m 2 min 0 min 173 W/m 0,0 km/h (0 Bft) 100,00 %
04.11.2020 09:14 4,8 C 8,3 C 4,5 C 97 % 1031,4 hPa 0,0 l/m 2 min 0 min 178 W/m 6,4 km/h (2 Bft) 100,00 %
04.11.2020 09:16 4,9 C 7,8 C 4,5 C 97 % 1031,4 hPa 0,0 l/m 2 min 0 min 180 W/m 3,2 km/h (1 Bft) 95,83 %
04.11.2020 09:18 5,0 C 7,2 C 4,5 C 97 % 1031,4 hPa 0,0 l/m 2 min 0 min 185 W/m 0,0 km/h (0 Bft) 97,92 %
04.11.2020 09:20 5,0 C 7,2 C 4,5 C 97 % 1031,4 hPa 0,0 l/m 2 min 0 min 191 W/m 3,2 km/h (1 Bft) 100,00 %
04.11.2020 09:22 5,1 C 7,2 C 5,0 C 97 % 1031,4 hPa 0,0 l/m 2 min 0 min 193 W/m 3,2 km/h (1 Bft) 100,00 %
04.11.2020 09:24 5,3 C 6,7 C 5,0 C 97 % 1031,4 hPa 0,0 l/m 2 min 0 min 198 W/m 19,3 km/h (3 Bft) 100,00 %
04.11.2020 09:26 5,4 C 6,7 C 5,0 C 97 % 1031,5 hPa 0,0 l/m 2 min 0 min 201 W/m 6,4 km/h (2 Bft) 100,00 %
04.11.2020 09:28 5,4 C 6,7 C 5,0 C 97 % 1031,5 hPa 0,0 l/m 2 min 0 min 205 W/m 0,0 km/h (0 Bft) 100,00 %
04.11.2020 09:30 5,5 C 6,7 C 5,0 C 97 % 1031,6 hPa 0,0 l/m 2 min 0 min 209 W/m 6,4 km/h (2 Bft) 100,00 %
04.11.2020 09:32 5,5 C 6,7 C 5,0 C 97 % 1031,5 hPa 0,0 l/m 2 min 0 min 213 W/m 3,2 km/h (1 Bft) 97,87 %
04.11.2020 09:34 5,6 C 6,7 C 5,6 C 97 % 1031,5 hPa 0,0 l/m 2 min 0 min 218 W/m 0,0 km/h (0 Bft) 100,00 %
04.11.2020 09:36 5,7 C 7,2 C 5,6 C 97 % 1031,5 hPa 0,0 l/m 2 min 0 min 220 W/m 0,0 km/h (0 Bft) 100,00 %
04.11.2020 09:38 5,8 C 7,2 C 5,6 C 97 % 1031,5 hPa 0,0 l/m 2 min 0 min 225 W/m 3,2 km/h (1 Bft) 97,22 %
04.11.2020 09:40 5,9 C 8,3 C 5,6 C 97 % 1031,6 hPa 0,0 l/m 2 min 0 min 230 W/m 3,2 km/h (1 Bft) 100,00 %
04.11.2020 09:42 5,9 C 8,3 C 5,6 C 97 % 1031,6 hPa 0,0 l/m 2 min 0 min 233 W/m 0,0 km/h (0 Bft) 100,00 %
04.11.2020 09:44 6,0 C 7,8 C 5,6 C 97 % 1031,6 hPa 0,0 l/m 2 min 0 min 236 W/m 3,2 km/h (1 Bft) 100,00 %
04.11.2020 09:46 6,0 C 7,8 C 5,6 C 97 % 1031,6 hPa 0,0 l/m 2 min 0 min 239 W/m 3,2 km/h (1 Bft) 97,87 %
04.11.2020 09:48 6,1 C 7,2 C 5,6 C 97 % 1031,6 hPa 0,0 l/m 2 min 0 min 243 W/m 3,2 km/h (1 Bft) 98,18 %
04.11.2020 09:50 6,1 C 7,2 C 5,6 C 97 % 1031,6 hPa 0,0 l/m 2 min 0 min 247 W/m 0,0 km/h (0 Bft) 100,00 %
04.11.2020 09:52 6,3 C 7,2 C 5,6 C 97 % 1031,6 hPa 0,0 l/m 2 min 0 min 250 W/m 3,2 km/h (1 Bft) 100,00 %
04.11.2020 09:54 6,3 C 7,2 C 5,6 C 97 % 1031,6 hPa 0,0 l/m 2 min 0 min 253 W/m 0,0 km/h (0 Bft) 100,00 %
04.11.2020 09:56 6,3 C 7,8 C 5,6 C 97 % 1031,7 hPa 0,0 l/m 2 min 0 min 258 W/m 3,2 km/h (1 Bft) 97,87 %
04.11.2020 09:58 6,4 C 8,3 C 6,1 C 97 % 1031,7 hPa 0,0 l/m 2 min 0 min 262 W/m 6,4 km/h (2 Bft) 97,22 %
04.11.2020 10:00 6,4 C 8,9 C 6,1 C 97 % 1031,7 hPa 0,0 l/m 2 min 0 min 266 W/m 3,2 km/h (1 Bft) 97,92 %
04.11.2020 10:02 6,5 C 8,9 C 6,1 C 97 % 1031,8 hPa 0,0 l/m 2 min 0 min 268 W/m 3,2 km/h (1 Bft) 97,92 %
04.11.2020 10:04 6,5 C 8,9 C 6,1 C 97 % 1031,8 hPa 0,0 l/m 2 min 0 min 271 W/m 3,2 km/h (1 Bft) 97,87 %
04.11.2020 10:06 6,6 C 9,4 C 6,1 C 97 % 1031,7 hPa 0,0 l/m 2 min 0 min 274 W/m 3,2 km/h (1 Bft) 97,87 %
04.11.2020 10:08 6,6 C 10,0 C 6,1 C 97 % 1031,7 hPa 0,0 l/m 2 min 0 min 277 W/m 6,4 km/h (2 Bft) 97,83 %
04.11.2020 10:10 6,7 C 10,0 C 6,1 C 97 % 1031,8 hPa 0,0 l/m 2 min 0 min 281 W/m 0,0 km/h (0 Bft) 95,74 %
04.11.2020 10:12 6,8 C 9,4 C 6,1 C 97 % 1031,8 hPa 0,0 l/m 2 min 0 min 285 W/m 0,0 km/h (0 Bft) 93,62 %
04.11.2020 10:14 6,8 C 9,4 C 6,1 C 97 % 1031,9 hPa 0,0 l/m 2 min 0 min 290 W/m 0,0 km/h (0 Bft) 54,35 %
04.11.2020 10:16 6,9 C 9,4 C 6,1 C 97 % 1031,9 hPa 0,0 l/m 2 min 0 min 293 W/m 0,0 km/h (0 Bft) 96,23 %
04.11.2020 10:18 6,9 C 10,0 C 6,1 C 96 % 1032,0 hPa 0,0 l/m 2 min 0 min 255 W/m 0,0 km/h (0 Bft) 95,74 %
04.11.2020 10:20 6,9 C 10,0 C 6,1 C 96 % 1032,0 hPa 0,0 l/m 2 min 0 min 281 W/m 3,2 km/h (1 Bft) 95,83 %
04.11.2020 10:22 7,0 C 9,4 C 6,1 C 96 % 1032,0 hPa 0,0 l/m 2 min 0 min 306 W/m 3,2 km/h (1 Bft) 91,89 %
04.11.2020 10:24 7,0 C 9,4 C 6,1 C 96 % 1032,0 hPa 0,0 l/m 2 min 0 min 308 W/m 3,2 km/h (1 Bft) 93,88 %
04.11.2020 10:26 7,0 C 10,6 C 6,1 C 96 % 1032,0 hPa 0,0 l/m 2 min 0 min 310 W/m 3,2 km/h (1 Bft) 91,67 %
04.11.2020 10:28 7,1 C 11,1 C 6,1 C 96 % 1032,0 hPa 0,0 l/m 2 min 0 min 313 W/m 6,4 km/h (2 Bft) 97,92 %
04.11.2020 10:30 7,2 C 11,1 C 6,7 C 96 % 1032,1 hPa 0,0 l/m 2 min 0 min 318 W/m 6,4 km/h (2 Bft) 97,96 %
04.11.2020 10:32 7,3 C 10,6 C 6,7 C 96 % 1032,1 hPa 0,0 l/m 2 min 0 min 218 W/m 3,2 km/h (1 Bft) 95,83 %
04.11.2020 10:34 7,3 C 10,0 C 6,7 C 95 % 1032,2 hPa 0,0 l/m 0 min 0 min 109 W/m 3,2 km/h (1 Bft) 97,87 %
04.11.2020 10:36 7,4 C 10,0 C 6,7 C 95 % 1032,1 hPa 0,0 l/m 2 min 0 min 224 W/m 6,4 km/h (2 Bft) 97,87 %
04.11.2020 10:38 7,4 C 10,6 C 6,7 C 95 % 1032,2 hPa 0,0 l/m 2 min 0 min 187 W/m 3,2 km/h (1 Bft) 100,00 %
04.11.2020 10:40 7,4 C 11,1 C 6,7 C 95 % 1032,2 hPa 0,0 l/m 0 min 0 min 127 W/m 0,0 km/h (0 Bft) 98,15 %
04.11.2020 10:42 7,5 C 11,1 C 6,7 C 95 % 1032,2 hPa 0,0 l/m 2 min 0 min 171 W/m 0,0 km/h (0 Bft) 93,75 %
04.11.2020 10:44 7,5 C 10,6 C 6,7 C 95 % 1032,3 hPa 0,0 l/m 0 min 0 min 123 W/m 3,2 km/h (1 Bft) 100,00 %
04.11.2020 10:46 7,6 C 10,0 C 6,7 C 94 % 1032,4 hPa 0,0 l/m 2 min 0 min 227 W/m 3,2 km/h (1 Bft) 100,00 %
04.11.2020 10:48 7,6 C 10,0 C 6,7 C 94 % 1032,4 hPa 0,0 l/m 2 min 0 min 287 W/m 3,2 km/h (1 Bft) 95,83 %
04.11.2020 10:50 7,7 C 10,6 C 7,2 C 94 % 1032,4 hPa 0,0 l/m 2 min 0 min 343 W/m 3,2 km/h (1 Bft) 100,00 %
04.11.2020 10:52 7,8 C 10,6 C 6,7 C 94 % 1032,4 hPa 0,0 l/m 2 min 0 min 344 W/m 3,2 km/h (1 Bft) 100,00 %
04.11.2020 10:54 7,8 C 11,1 C 6,7 C 94 % 1032,4 hPa 0,0 l/m 2 min 0 min 270 W/m 3,2 km/h (1 Bft) 97,87 %
04.11.2020 10:56 7,9 C 11,7 C 7,2 C 94 % 1032,5 hPa 0,0 l/m 2 min 0 min 224 W/m 3,2 km/h (1 Bft) 100,00 %
04.11.2020 10:58 7,9 C 12,2 C 7,2 C 94 % 1032,5 hPa 0,0 l/m 2 min 0 min 341 W/m 0,0 km/h (0 Bft) 97,92 %
04.11.2020 11:00 8,0 C 11,7 C 7,2 C 93 % 1032,6 hPa 0,0 l/m 2 min 0 min 270 W/m 0,0 km/h (0 Bft) 97,92 %
04.11.2020 11:02 8,0 C 11,7 C 7,2 C 93 % 1032,5 hPa 0,0 l/m 0 min 0 min 157 W/m 0,0 km/h (0 Bft) 100,00 %
04.11.2020 11:04 8,1 C 11,7 C 7,2 C 93 % 1032,6 hPa 0,0 l/m 2 min 0 min 243 W/m 0,0 km/h (0 Bft) 97,87 %
04.11.2020 11:06 8,1 C 12,8 C 7,2 C 93 % 1032,5 hPa 0,0 l/m 2 min 0 min 194 W/m 6,4 km/h (2 Bft) 97,83 %
04.11.2020 11:08 8,2 C 13,9 C 7,2 C 93 % 1032,6 hPa 0,0 l/m 2 min 0 min 282 W/m 6,4 km/h (2 Bft) 97,87 %
04.11.2020 11:10 8,3 C 15,6 C 7,2 C 92 % 1032,7 hPa 0,0 l/m 2 min 0 min 371 W/m 3,2 km/h (1 Bft) 97,78 %
04.11.2020 11:12 8,3 C 15,6 C 7,2 C 92 % 1032,7 hPa 0,0 l/m 2 min 0 min 375 W/m 6,4 km/h (2 Bft) 100,00 %
04.11.2020 11:14 8,4 C 16,7 C 7,2 C 92 % 1032,8 hPa 0,0 l/m 2 min 0 min 378 W/m 0,0 km/h (0 Bft) 100,00 %
04.11.2020 11:16 8,5 C 16,7 C 7,2 C 92 % 1032,8 hPa 0,0 l/m 2 min 0 min 380 W/m 6,4 km/h (2 Bft) 97,83 %
04.11.2020 11:18 8,5 C 16,7 C 7,2 C 92 % 1032,8 hPa 0,0 l/m 2 min 0 min 380 W/m 0,0 km/h (0 Bft) 97,87 %
04.11.2020 11:20 8,6 C 17,2 C 7,2 C 92 % 1032,7 hPa 0,0 l/m 2 min 0 min 382 W/m 0,0 km/h (0 Bft) 100,00 %
04.11.2020 11:22 8,7 C 17,2 C 7,2 C 91 % 1032,7 hPa 0,0 l/m 2 min 0 min 382 W/m 6,4 km/h (2 Bft) 100,00 %
04.11.2020 11:24 8,8 C 17,8 C 7,2 C 91 % 1032,8 hPa 0,0 l/m 2 min 0 min 384 W/m 3,2 km/h (1 Bft) 100,00 %
04.11.2020 11:26 8,9 C 16,7 C 7,2 C 91 % 1032,8 hPa 0,0 l/m 2 min 0 min 386 W/m 3,2 km/h (1 Bft) 100,00 %
04.11.2020 11:28 8,9 C 17,8 C 7,2 C 90 % 1032,8 hPa 0,0 l/m 2 min 0 min 391 W/m 0,0 km/h (0 Bft) 97,87 %
04.11.2020 11:30 9,0 C 17,2 C 7,2 C 90 % 1032,7 hPa 0,0 l/m 2 min 0 min 391 W/m 0,0 km/h (0 Bft) 100,00 %
04.11.2020 11:32 9,1 C 16,7 C 7,8 C 90 % 1032,8 hPa 0,0 l/m 2 min 0 min 388 W/m 0,0 km/h (0 Bft) 97,96 %
04.11.2020 11:34 9,2 C 16,1 C 7,8 C 89 % 1032,8 hPa 0,0 l/m 2 min 0 min 392 W/m 0,0 km/h (0 Bft) 95,74 %
04.11.2020 11:36 9,3 C 15,6 C 7,8 C 89 % 1032,8 hPa 0,0 l/m 2 min 0 min 396 W/m 6,4 km/h (2 Bft) 91,49 %
04.11.2020 11:38 9,4 C 16,7 C 7,8 C 89 % 1032,8 hPa 0,0 l/m 2 min 0 min 398 W/m 0,0 km/h (0 Bft) 95,74 %
04.11.2020 11:40 9,4 C 17,8 C 7,8 C 89 % 1032,8 hPa 0,0 l/m 2 min 0 min 398 W/m 6,4 km/h (2 Bft) 95,65 %
04.11.2020 11:42 9,5 C 18,3 C 7,8 C 88 % 1032,9 hPa 0,0 l/m 2 min 0 min 400 W/m 0,0 km/h (0 Bft) 95,74 %
04.11.2020 11:44 9,6 C 17,8 C 7,8 C 88 % 1032,9 hPa 0,0 l/m 2 min 0 min 396 W/m 6,4 km/h (2 Bft) 95,74 %
04.11.2020 11:46 9,7 C 17,2 C 7,8 C 88 % 1032,9 hPa 0,0 l/m 2 min 0 min 399 W/m 0,0 km/h (0 Bft) 95,74 %
04.11.2020 11:48 9,8 C 17,2 C 7,8 C 87 % 1033,0 hPa 0,0 l/m 2 min 0 min 400 W/m 6,4 km/h (2 Bft) 96,36 %
04.11.2020 11:50 9,9 C 17,2 C 7,8 C 87 % 1033,0 hPa 0,0 l/m 2 min 0 min 400 W/m 3,2 km/h (1 Bft) 94,44 %
04.11.2020 11:52 10,0 C 17,2 C 7,8 C 87 % 1033,0 hPa 0,0 l/m 2 min 0 min 401 W/m 3,2 km/h (1 Bft) 95,92 %
04.11.2020 11:54 10,1 C 17,2 C 7,8 C 86 % 1032,9 hPa 0,0 l/m 2 min 0 min 407 W/m 3,2 km/h (1 Bft) 97,87 %
04.11.2020 11:56 10,2 C 17,2 C 7,8 C 86 % 1033,0 hPa 0,0 l/m 2 min 0 min 410 W/m 0,0 km/h (0 Bft) 100,00 %
04.11.2020 11:58 10,3 C 17,2 C 8,4 C 86 % 1033,0 hPa 0,0 l/m 2 min 0 min 413 W/m 0,0 km/h (0 Bft) 100,00 %
04.11.2020 12:00 10,4 C 17,2 C 8,4 C 85 % 1033,0 hPa 0,0 l/m 2 min 0 min 411 W/m 0,0 km/h (0 Bft) 100,00 %
04.11.2020 12:02 10,5 C 18,3 C 7,8 C 85 % 1033,0 hPa 0,0 l/m 2 min 0 min 411 W/m 0,0 km/h (0 Bft) 98,00 %
04.11.2020 12:04 10,5 C 17,2 C 7,8 C 85 % 1033,0 hPa 0,0 l/m 2 min 0 min 410 W/m 6,4 km/h (2 Bft) 100,00 %
04.11.2020 12:07 10,6 C 16,1 C 8,4 C 84 % 1033,1 hPa 0,0 l/m 3 min 0 min 392 W/m 6,4 km/h (2 Bft) 100,00 %
04.11.2020 12:08 10,7 C 16,1 C 8,4 C 84 % 1033,1 hPa 0,0 l/m 1 min 0 min 412 W/m 3,2 km/h (1 Bft) 100,00 %
04.11.2020 12:10 10,8 C 16,7 C 8,4 C 83 % 1033,1 hPa 0,0 l/m 2 min 0 min 413 W/m 6,4 km/h (2 Bft) 100,00 %
04.11.2020 12:12 10,8 C 17,2 C 8,4 C 83 % 1033,1 hPa 0,0 l/m 2 min 0 min 424 W/m 3,2 km/h (1 Bft) 100,00 %
04.11.2020 12:14 10,9 C 17,8 C 8,4 C 83 % 1033,1 hPa 0,0 l/m 2 min 0 min 419 W/m 3,2 km/h (1 Bft) 100,00 %
04.11.2020 12:16 11,0 C 17,8 C 8,4 C 83 % 1033,0 hPa 0,0 l/m 2 min 0 min 417 W/m 3,2 km/h (1 Bft) 100,00 %
04.11.2020 12:18 11,0 C 17,8 C 8,4 C 82 % 1033,0 hPa 0,0 l/m 2 min 0 min 409 W/m 0,0 km/h (0 Bft) 100,00 %
04.11.2020 12:20 11,1 C 17,2 C 8,4 C 82 % 1032,9 hPa 0,0 l/m 2 min 0 min 418 W/m 0,0 km/h (0 Bft) 100,00 %
04.11.2020 12:22 11,2 C 17,8 C 8,4 C 82 % 1032,9 hPa 0,0 l/m 2 min 0 min 417 W/m 3,2 km/h (1 Bft) 100,00 %
04.11.2020 12:24 11,3 C 18,3 C 8,9 C 82 % 1033,0 hPa 0,0 l/m 2 min 0 min 418 W/m 3,2 km/h (1 Bft) 100,00 %
04.11.2020 12:26 11,4 C 18,3 C 9,5 C 83 % 1032,9 hPa 0,0 l/m 2 min 0 min 420 W/m 0,0 km/h (0 Bft) 100,00 %
04.11.2020 12:28 11,5 C 17,8 C 9,5 C 82 % 1033,0 hPa 0,0 l/m 2 min 0 min 419 W/m 0,0 km/h (0 Bft) 100,00 %
04.11.2020 12:30 11,6 C 18,3 C 10,0 C 82 % 1033,0 hPa 0,0 l/m 2 min 0 min 416 W/m 0,0 km/h (0 Bft) 100,00 %
04.11.2020 12:32 11,7 C 18,9 C 9,5 C 81 % 1033,0 hPa 0,0 l/m 2 min 0 min 412 W/m 0,0 km/h (0 Bft) 100,00 %
04.11.2020 12:34 11,8 C 19,4 C 9,5 C 81 % 1033,0 hPa 0,0 l/m 2 min 0 min 427 W/m 0,0 km/h (0 Bft) 97,87 %
04.11.2020 12:36 11,9 C 18,9 C 9,5 C 81 % 1032,9 hPa 0,0 l/m 2 min 0 min 432 W/m 0,0 km/h (0 Bft) 100,00 %
04.11.2020 12:38 11,9 C 18,9 C 9,5 C 80 % 1032,9 hPa 0,0 l/m 2 min 0 min 423 W/m 0,0 km/h (0 Bft) 100,00 %
04.11.2020 12:40 12,0 C 18,9 C 9,5 C 80 % 1032,9 hPa 0,0 l/m 2 min 0 min 419 W/m 0,0 km/h (0 Bft) 100,00 %
04.11.2020 12:42 12,0 C 18,3 C 8,9 C 80 % 1032,9 hPa 0,0 l/m 2 min 0 min 419 W/m 0,0 km/h (0 Bft) 100,00 %
04.11.2020 12:44 12,1 C 17,8 C 9,5 C 79 % 1032,9 hPa 0,0 l/m 2 min 0 min 418 W/m 0,0 km/h (0 Bft) 100,00 %
04.11.2020 12:46 12,1 C 18,3 C 9,5 C 79 % 1033,0 hPa 0,0 l/m 2 min 0 min 422 W/m 0,0 km/h (0 Bft) 100,00 %
04.11.2020 12:48 12,2 C 17,8 C 9,5 C 78 % 1032,9 hPa 0,0 l/m 2 min 0 min 433 W/m 0,0 km/h (0 Bft) 97,92 %
04.11.2020 12:50 12,3 C 17,8 C 8,9 C 78 % 1032,9 hPa 0,0 l/m 2 min 0 min 441 W/m 0,0 km/h (0 Bft) 97,87 %
04.11.2020 12:52 12,4 C 18,3 C 8,9 C 78 % 1033,0 hPa 0,0 l/m 2 min 0 min 443 W/m 6,4 km/h (2 Bft) 97,92 %
04.11.2020 12:54 12,4 C 18,9 C 8,9 C 79 % 1032,9 hPa 0,0 l/m 2 min 0 min 455 W/m 3,2 km/h (1 Bft) 97,87 %
04.11.2020 12:56 12,5 C 19,4 C 8,9 C 80 % 1032,9 hPa 0,0 l/m 2 min 0 min 465 W/m 9,7 km/h (2 Bft) 97,87 %
04.11.2020 12:58 12,6 C 18,9 C 9,5 C 79 % 1032,9 hPa 0,0 l/m 2 min 0 min 447 W/m 6,4 km/h (2 Bft) 95,74 %
04.11.2020 13:00 12,7 C 19,4 C 10,0 C 79 % 1032,9 hPa 0,0 l/m 2 min 0 min 460 W/m 6,4 km/h (2 Bft) 93,48 %
04.11.2020 13:02 12,8 C 19,4 C 10,0 C 79 % 1032,9 hPa 0,0 l/m 2 min 0 min 477 W/m 3,2 km/h (1 Bft) 93,62 %
04.11.2020 13:04 12,9 C 20,0 C 10,0 C 79 % 1032,9 hPa 0,0 l/m 2 min 0 min 470 W/m 6,4 km/h (2 Bft) 97,62 %
04.11.2020 13:06 12,9 C 18,9 C 10,0 C 78 % 1032,9 hPa 0,0 l/m 2 min 0 min 432 W/m 9,7 km/h (2 Bft) 93,75 %
04.11.2020 13:08 13,0 C 18,9 C 10,0 C 78 % 1032,9 hPa 0,0 l/m 2 min 0 min 458 W/m 9,7 km/h (2 Bft) 95,83 %
04.11.2020 13:10 13,0 C 20,0 C 10,0 C 78 % 1032,9 hPa 0,0 l/m 2 min 0 min 491 W/m 6,4 km/h (2 Bft) 97,92 %
04.11.2020 13:12 13,1 C 20,6 C 10,0 C 78 % 1032,8 hPa 0,0 l/m 2 min 0 min 477 W/m 3,2 km/h (1 Bft) 95,74 %
04.11.2020 13:14 13,2 C 20,6 C 10,0 C 78 % 1032,9 hPa 0,0 l/m 2 min 0 min 470 W/m 3,2 km/h (1 Bft) 95,74 %
04.11.2020 13:16 13,3 C 20,0 C 10,0 C 77 % 1032,8 hPa 0,0 l/m 2 min 0 min 408 W/m 12,9 km/h (3 Bft) 97,87 %
04.11.2020 13:18 13,3 C 17,8 C 9,5 C 77 % 1032,9 hPa 0,0 l/m 2 min 0 min 411 W/m 12,9 km/h (3 Bft) 93,75 %
04.11.2020 13:20 13,3 C 17,2 C 9,5 C 76 % 1032,9 hPa 0,0 l/m 0 min 0 min 165 W/m 6,4 km/h (2 Bft) 96,00 %
04.11.2020 13:22 13,2 C 15,0 C 9,5 C 75 % 1032,9 hPa 0,0 l/m 0 min 0 min 120 W/m 6,4 km/h (2 Bft) 97,87 %
04.11.2020 13:24 13,2 C 13,9 C 9,5 C 75 % 1032,9 hPa 0,0 l/m 0 min 0 min 112 W/m 9,7 km/h (2 Bft) 97,30 %
04.11.2020 13:26 13,1 C 13,3 C 8,9 C 75 % 1032,9 hPa 0,0 l/m 0 min 0 min 113 W/m 6,4 km/h (2 Bft) 97,92 %
04.11.2020 13:28 13,1 C 13,3 C 8,9 C 74 % 1032,9 hPa 0,0 l/m 0 min 0 min 111 W/m 3,2 km/h (1 Bft) 95,92 %
04.11.2020 13:30 13,0 C 12,8 C 8,9 C 75 % 1032,9 hPa 0,0 l/m 0 min 0 min 109 W/m 3,2 km/h (1 Bft) 95,83 %
04.11.2020 13:32 12,9 C 13,9 C 8,9 C 75 % 1032,8 hPa 0,0 l/m 0 min 0 min 131 W/m 3,2 km/h (1 Bft) 100,00 %
04.11.2020 13:34 12,9 C 13,3 C 8,9 C 76 % 1032,8 hPa 0,0 l/m 0 min 0 min 113 W/m 3,2 km/h (1 Bft) 97,87 %
04.11.2020 13:36 12,8 C 12,8 C 8,9 C 76 % 1032,9 hPa 0,0 l/m 0 min 0 min 98 W/m 3,2 km/h (1 Bft) 95,12 %
04.11.2020 13:38 12,6 C 14,4 C 8,9 C 76 % 1032,9 hPa 0,0 l/m 2 min 0 min 246 W/m 3,2 km/h (1 Bft) 97,96 %
04.11.2020 13:40 12,6 C 14,4 C 8,9 C 76 % 1032,9 hPa 0,0 l/m 2 min 0 min 390 W/m 0,0 km/h (0 Bft) 97,92 %
04.11.2020 13:42 12,5 C 15,0 C 8,9 C 77 % 1032,9 hPa 0,0 l/m 0 min 0 min 172 W/m 0,0 km/h (0 Bft) 97,96 %
04.11.2020 13:44 12,5 C 13,9 C 8,9 C 76 % 1032,9 hPa 0,0 l/m 0 min 0 min 116 W/m 0,0 km/h (0 Bft) 100,00 %
04.11.2020 13:46 12,4 C 13,9 C 8,9 C 76 % 1032,9 hPa 0,0 l/m 0 min 0 min 121 W/m 0,0 km/h (0 Bft) 97,87 %
04.11.2020 13:48 12,4 C 15,6 C 8,9 C 77 % 1032,9 hPa 0,0 l/m 2 min 0 min 223 W/m 3,2 km/h (1 Bft) 97,92 %
04.11.2020 13:50 12,4 C 17,2 C 9,5 C 77 % 1032,9 hPa 0,0 l/m 2 min 0 min 430 W/m 0,0 km/h (0 Bft) 100,00 %
04.11.2020 13:52 12,5 C 18,3 C 9,5 C 77 % 1032,9 hPa 0,0 l/m 2 min 0 min 418 W/m 0,0 km/h (0 Bft) 100,00 %
04.11.2020 13:54 12,5 C 18,3 C 9,5 C 77 % 1032,8 hPa 0,0 l/m 2 min 0 min 408 W/m 0,0 km/h (0 Bft) 98,31 %
04.11.2020 13:56 12,6 C 18,9 C 10,0 C 78 % 1032,8 hPa 0,0 l/m 2 min 0 min 409 W/m 0,0 km/h (0 Bft) 97,87 %
04.11.2020 13:58 12,8 C 18,3 C 10,0 C 78 % 1032,8 hPa 0,0 l/m 2 min 0 min 388 W/m 16,1 km/h (3 Bft) 97,83 %
04.11.2020 14:00 12,8 C 18,3 C 10,0 C 76 % 1032,8 hPa 0,0 l/m 2 min 0 min 377 W/m 16,1 km/h (3 Bft) 100,00 %
04.11.2020 14:02 12,8 C 18,3 C 10,0 C 76 % 1032,8 hPa 0,0 l/m 2 min 0 min 370 W/m 6,4 km/h (2 Bft) 100,00 %
04.11.2020 14:04 12,9 C 17,8 C 10,0 C 76 % 1032,9 hPa 0,0 l/m 2 min 0 min 364 W/m 9,7 km/h (2 Bft) 97,87 %
04.11.2020 14:06 12,9 C 18,3 C 9,5 C 76 % 1033,0 hPa 0,0 l/m 2 min 0 min 360 W/m 12,9 km/h (3 Bft) 98,31 %
04.11.2020 14:08 12,9 C 18,3 C 9,5 C 76 % 1033,0 hPa 0,0 l/m 2 min 0 min 354 W/m 6,4 km/h (2 Bft) 95,74 %
04.11.2020 14:10 12,9 C 18,3 C 10,0 C 76 % 1032,9 hPa 0,0 l/m 2 min 0 min 354 W/m 6,4 km/h (2 Bft) 97,83 %
04.11.2020 14:12 13,0 C 18,3 C 10,0 C 75 % 1032,9 hPa 0,0 l/m 2 min 0 min 359 W/m 6,4 km/h (2 Bft) 95,74 %
04.11.2020 14:14 13,0 C 18,3 C 9,5 C 74 % 1032,9 hPa 0,0 l/m 2 min 0 min 356 W/m 6,4 km/h (2 Bft) 97,87 %
04.11.2020 14:16 13,0 C 18,9 C 9,5 C 74 % 1032,9 hPa 0,0 l/m 2 min 0 min 352 W/m 0,0 km/h (0 Bft) 97,87 %
04.11.2020 14:18 13,0 C 18,9 C 9,5 C 75 % 1033,0 hPa 0,0 l/m 2 min 0 min 349 W/m 0,0 km/h (0 Bft) 97,87 %
04.11.2020 14:20 13,0 C 18,3 C 9,5 C 74 % 1033,0 hPa 0,0 l/m 2 min 0 min 335 W/m 6,4 km/h (2 Bft) 95,74 %
04.11.2020 14:22 13,0 C 17,8 C 9,5 C 74 % 1033,0 hPa 0,0 l/m 2 min 0 min 325 W/m 6,4 km/h (2 Bft) 97,83 %
04.11.2020 14:24 13,0 C 17,8 C 9,5 C 74 % 1033,0 hPa 0,0 l/m 2 min 0 min 319 W/m 0,0 km/h (0 Bft) 97,87 %
04.11.2020 14:26 13,0 C 16,7 C 9,5 C 74 % 1032,9 hPa 0,0 l/m 2 min 0 min 222 W/m 0,0 km/h (0 Bft) 93,62 %
04.11.2020 14:28 13,0 C 16,7 C 8,9 C 74 % 1032,9 hPa 0,0 l/m 2 min 0 min 267 W/m 0,0 km/h (0 Bft) 95,74 %
04.11.2020 14:30 13,0 C 16,7 C 8,9 C 74 % 1032,9 hPa 0,0 l/m 2 min 0 min 299 W/m 0,0 km/h (0 Bft) 95,74 %
04.11.2020 14:32 13,0 C 17,2 C 8,9 C 74 % 1032,9 hPa 0,0 l/m 2 min 0 min 307 W/m 0,0 km/h (0 Bft) 94,29 %
04.11.2020 14:34 13,0 C 16,7 C 8,9 C 74 % 1032,9 hPa 0,0 l/m 2 min 0 min 306 W/m 6,4 km/h (2 Bft) 96,55 %
04.11.2020 14:36 13,0 C 17,2 C 8,9 C 74 % 1032,9 hPa 0,0 l/m 2 min 0 min 276 W/m 3,2 km/h (1 Bft) 94,29 %
04.11.2020 14:38 13,0 C 17,2 C 8,9 C 74 % 1032,9 hPa 0,0 l/m 2 min 0 min 297 W/m 0,0 km/h (0 Bft) 94,92 %
04.11.2020 14:40 13,0 C 17,8 C 8,9 C 73 % 1032,9 hPa 0,0 l/m 2 min 0 min 295 W/m 0,0 km/h (0 Bft) 95,74 %
04.11.2020 14:42 13,0 C 17,2 C 8,9 C 74 % 1032,9 hPa 0,0 l/m 2 min 0 min 296 W/m 6,4 km/h (2 Bft) 95,74 %
04.11.2020 14:44 13,0 C 17,2 C 8,9 C 73 % 1032,9 hPa 0,0 l/m 2 min 0 min 293 W/m 3,2 km/h (1 Bft) 95,65 %
04.11.2020 14:46 13,0 C 16,7 C 8,9 C 74 % 1033,0 hPa 0,0 l/m 2 min 0 min 299 W/m 0,0 km/h (0 Bft) 95,74 %
04.11.2020 14:48 12,9 C 16,7 C 8,9 C 73 % 1032,9 hPa 0,0 l/m 2 min 0 min 300 W/m 6,4 km/h (2 Bft) 93,62 %
04.11.2020 14:50 12,8 C 16,7 C 8,9 C 73 % 1032,9 hPa 0,0 l/m 2 min 0 min 290 W/m 3,2 km/h (1 Bft) 97,14 %
04.11.2020 14:52 12,8 C 16,7 C 8,9 C 72 % 1032,9 hPa 0,0 l/m 2 min 0 min 278 W/m 0,0 km/h (0 Bft) 98,31 %
04.11.2020 14:54 12,8 C 16,1 C 8,9 C 72 % 1032,9 hPa 0,0 l/m 2 min 0 min 268 W/m 9,7 km/h (2 Bft) 97,87 %
04.11.2020 14:56 12,6 C 16,1 C 8,9 C 72 % 1032,9 hPa 0,0 l/m 2 min 0 min 262 W/m 12,9 km/h (3 Bft) 97,83 %
04.11.2020 14:58 12,6 C 15,6 C 8,9 C 72 % 1032,9 hPa 0,0 l/m 2 min 0 min 259 W/m 3,2 km/h (1 Bft) 97,87 %
04.11.2020 15:00 12,5 C 15,0 C 8,9 C 72 % 1032,9 hPa 0,0 l/m 2 min 0 min 255 W/m 3,2 km/h (1 Bft) 97,87 %
04.11.2020 15:02 12,5 C 13,9 C 8,9 C 72 % 1032,9 hPa 0,0 l/m 2 min 0 min 251 W/m 0,0 km/h (0 Bft) 97,14 %
04.11.2020 15:04 12,4 C 12,8 C 8,9 C 73 % 1033,0 hPa 0,0 l/m 2 min 0 min 248 W/m 0,0 km/h (0 Bft) 98,31 %
04.11.2020 15:06 12,4 C 12,2 C 8,9 C 73 % 1033,0 hPa 0,0 l/m 2 min 0 min 243 W/m 0,0 km/h (0 Bft) 97,14 %
04.11.2020 15:08 12,3 C 12,2 C 8,9 C 73 % 1033,0 hPa 0,0 l/m 2 min 0 min 237 W/m 0,0 km/h (0 Bft) 98,28 %
04.11.2020 15:10 12,3 C 11,7 C 8,9 C 73 % 1033,1 hPa 0,0 l/m 2 min 0 min 230 W/m 0,0 km/h (0 Bft) 97,22 %
04.11.2020 15:12 12,2 C 11,1 C 8,4 C 73 % 1033,1 hPa 0,0 l/m 2 min 0 min 222 W/m 0,0 km/h (0 Bft) 93,10 %
04.11.2020 15:14 12,1 C 11,1 C 8,9 C 73 % 1033,2 hPa 0,0 l/m 2 min 0 min 213 W/m 0,0 km/h (0 Bft) 93,62 %
04.11.2020 15:16 12,1 C 11,1 C 8,9 C 73 % 1033,2 hPa 0,0 l/m 2 min 0 min 206 W/m 0,0 km/h (0 Bft) 95,74 %
04.11.2020 15:18 12,0 C 11,1 C 8,4 C 74 % 1033,2 hPa 0,0 l/m 2 min 0 min 202 W/m 0,0 km/h (0 Bft) 94,29 %
04.11.2020 15:20 11,9 C 10,6 C 8,4 C 74 % 1033,2 hPa 0,0 l/m 2 min 0 min 197 W/m 0,0 km/h (0 Bft) 94,83 %
04.11.2020 15:22 11,8 C 10,6 C 8,4 C 75 % 1033,3 hPa 0,0 l/m 2 min 0 min 189 W/m 3,2 km/h (1 Bft) 93,62 %
04.11.2020 15:24 11,8 C 10,6 C 8,4 C 75 % 1033,3 hPa 0,0 l/m 2 min 0 min 169 W/m 0,0 km/h (0 Bft) 95,74 %
04.11.2020 15:26 11,6 C 10,6 C 8,4 C 75 % 1033,2 hPa 0,0 l/m 2 min 0 min 137 W/m 0,0 km/h (0 Bft) 95,74 %
04.11.2020 15:28 11,6 C 10,6 C 8,4 C 75 % 1033,3 hPa 0,0 l/m 2 min 0 min 102 W/m 0,0 km/h (0 Bft) 95,74 %
04.11.2020 15:30 11,5 C 10,6 C 8,4 C 75 % 1033,2 hPa 0,0 l/m 0 min 0 min 70 W/m 3,2 km/h (1 Bft) 97,14 %
04.11.2020 15:32 11,5 C 10,0 C 8,4 C 75 % 1033,3 hPa 0,0 l/m 0 min 0 min 49 W/m 3,2 km/h (1 Bft) 95,74 %
04.11.2020 15:34 11,5 C 10,0 C 8,4 C 75 % 1033,3 hPa 0,0 l/m 0 min 0 min 46 W/m 3,2 km/h (1 Bft) 93,48 %
04.11.2020 15:36 11,4 C 10,0 C 8,4 C 76 % 1033,3 hPa 0,0 l/m 0 min 0 min 46 W/m 3,2 km/h (1 Bft) 97,87 %
04.11.2020 15:38 11,3 C 10,0 C 7,8 C 76 % 1033,3 hPa 0,0 l/m 0 min 0 min 44 W/m 0,0 km/h (0 Bft) 97,87 %
04.11.2020 15:40 11,3 C 10,0 C 7,8 C 76 % 1033,3 hPa 0,0 l/m 0 min 0 min 44 W/m 0,0 km/h (0 Bft) 93,62 %
04.11.2020 15:42 11,2 C 10,0 C 7,8 C 76 % 1033,3 hPa 0,0 l/m 0 min 0 min 45 W/m 3,2 km/h (1 Bft) 97,87 %
04.11.2020 15:44 11,1 C 10,0 C 7,8 C 77 % 1033,3 hPa 0,0 l/m 0 min 0 min 46 W/m 0,0 km/h (0 Bft) 97,87 %
04.11.2020 15:46 11,1 C 10,0 C 7,8 C 77 % 1033,3 hPa 0,0 l/m 0 min 0 min 46 W/m 0,0 km/h (0 Bft) 95,65 %
04.11.2020 15:48 11,1 C 10,0 C 7,8 C 77 % 1033,3 hPa 0,0 l/m 0 min 0 min 47 W/m 0,0 km/h (0 Bft) 97,87 %
04.11.2020 15:50 11,0 C 10,0 C 7,8 C 77 % 1033,3 hPa 0,0 l/m 0 min 0 min 46 W/m 3,2 km/h (1 Bft) 97,87 %
04.11.2020 15:52 11,0 C 10,0 C 7,8 C 77 % 1033,3 hPa 0,0 l/m 0 min 0 min 46 W/m 3,2 km/h (1 Bft) 97,87 %
04.11.2020 15:54 10,9 C 10,0 C 7,8 C 77 % 1033,3 hPa 0,0 l/m 0 min 0 min 47 W/m 0,0 km/h (0 Bft) 100,00 %
04.11.2020 15:56 10,9 C 9,4 C 7,8 C 78 % 1033,4 hPa 0,0 l/m 0 min 0 min 48 W/m 0,0 km/h (0 Bft) 100,00 %
04.11.2020 15:58 10,8 C 10,0 C 8,4 C 78 % 1033,4 hPa 0,0 l/m 0 min 0 min 52 W/m 0,0 km/h (0 Bft) 97,83 %
04.11.2020 16:00 10,8 C 10,0 C 7,8 C 78 % 1033,3 hPa 0,0 l/m 0 min 0 min 48 W/m 3,2 km/h (1 Bft) 100,00 %
04.11.2020 16:02 10,8 C 10,0 C 7,8 C 78 % 1033,3 hPa 0,0 l/m 0 min 0 min 48 W/m 0,0 km/h (0 Bft) 100,00 %
04.11.2020 16:04 10,7 C 10,0 C 7,8 C 78 % 1033,3 hPa 0,0 l/m 0 min 0 min 49 W/m 0,0 km/h (0 Bft) 95,74 %
04.11.2020 16:06 10,7 C 9,4 C 7,8 C 78 % 1033,3 hPa 0,0 l/m 0 min 0 min 47 W/m 0,0 km/h (0 Bft) 97,87 %
04.11.2020 16:08 10,6 C 9,4 C 7,8 C 79 % 1033,4 hPa 0,0 l/m 0 min 0 min 47 W/m 0,0 km/h (0 Bft) 100,00 %
04.11.2020 16:10 10,6 C 9,4 C 7,8 C 79 % 1033,4 hPa 0,0 l/m 0 min 0 min 45 W/m 0,0 km/h (0 Bft) 100,00 %
04.11.2020 16:12 10,6 C 9,4 C 7,8 C 79 % 1033,5 hPa 0,0 l/m 0 min 0 min 39 W/m 0,0 km/h (0 Bft) 100,00 %
04.11.2020 16:14 10,6 C 9,4 C 7,8 C 79 % 1033,5 hPa 0,0 l/m 0 min 0 min 35 W/m 3,2 km/h (1 Bft) 100,00 %
04.11.2020 16:16 10,5 C 9,4 C 7,8 C 79 % 1033,5 hPa 0,0 l/m 0 min 0 min 31 W/m 3,2 km/h (1 Bft) 100,00 %
04.11.2020 16:18 10,5 C 9,4 C 7,8 C 79 % 1033,5 hPa 0,0 l/m 0 min 0 min 27 W/m 0,0 km/h (0 Bft) 97,14 %
04.11.2020 16:20 10,4 C 9,4 C 7,2 C 79 % 1033,6 hPa 0,0 l/m 0 min 0 min 25 W/m 0,0 km/h (0 Bft) 97,83 %
04.11.2020 16:22 10,4 C 8,9 C 7,2 C 79 % 1033,6 hPa 0,0 l/m 0 min 0 min 25 W/m 0,0 km/h (0 Bft) 97,87 %
04.11.2020 16:24 10,4 C 8,9 C 7,2 C 79 % 1033,6 hPa 0,0 l/m 0 min 0 min 23 W/m 0,0 km/h (0 Bft) 98,18 %
04.11.2020 16:26 10,4 C 8,9 C 7,2 C 79 % 1033,6 hPa 0,0 l/m 0 min 0 min 23 W/m 0,0 km/h (0 Bft) 97,92 %
04.11.2020 16:28 10,3 C 8,9 C 6,7 C 79 % 1033,7 hPa 0,0 l/m 0 min 0 min 21 W/m 0,0 km/h (0 Bft) 97,92 %
04.11.2020 16:30 10,3 C 8,9 C 6,7 C 79 % 1033,7 hPa 0,0 l/m 0 min 0 min 21 W/m 0,0 km/h (0 Bft) 97,92 %
04.11.2020 16:32 10,3 C 8,9 C 6,7 C 79 % 1033,7 hPa 0,0 l/m 0 min 0 min 20 W/m 0,0 km/h (0 Bft) 95,74 %
04.11.2020 16:34 10,2 C 8,3 C 6,7 C 79 % 1033,8 hPa 0,0 l/m 0 min 0 min 19 W/m 0,0 km/h (0 Bft) 97,87 %
04.11.2020 16:36 10,1 C 8,3 C 6,7 C 79 % 1033,7 hPa 0,0 l/m 0 min 0 min 18 W/m 0,0 km/h (0 Bft) 94,29 %
04.11.2020 16:38 10,1 C 8,3 C 6,1 C 79 % 1033,7 hPa 0,0 l/m 0 min 0 min 17 W/m 0,0 km/h (0 Bft) 97,87 %
04.11.2020 16:40 10,1 C 8,3 C 6,1 C 80 % 1033,8 hPa 0,0 l/m 0 min 0 min 16 W/m 0,0 km/h (0 Bft) 98,18 %
04.11.2020 16:42 10,0 C 8,3 C 6,1 C 80 % 1033,8 hPa 0,0 l/m 0 min 0 min 15 W/m 0,0 km/h (0 Bft) 95,74 %
04.11.2020 16:44 10,0 C 8,3 C 6,1 C 80 % 1033,8 hPa 0,0 l/m 0 min 0 min 14 W/m 0,0 km/h (0 Bft) 97,92 %
04.11.2020 16:46 10,0 C 7,8 C 6,1 C 80 % 1033,9 hPa 0,0 l/m 0 min 0 min 12 W/m 0,0 km/h (0 Bft) 97,92 %
04.11.2020 16:48 9,9 C 7,8 C 5,6 C 80 % 1033,9 hPa 0,0 l/m 0 min 0 min 12 W/m 0,0 km/h (0 Bft) 97,87 %
04.11.2020 16:50 9,8 C 7,8 C 5,6 C 80 % 1033,9 hPa 0,0 l/m 0 min 0 min 11 W/m 0,0 km/h (0 Bft) 91,43 %
04.11.2020 16:52 9,8 C 7,2 C 5,6 C 80 % 1034,0 hPa 0,0 l/m 0 min 0 min 11 W/m 0,0 km/h (0 Bft) 95,74 %
04.11.2020 16:54 9,7 C 7,2 C 5,6 C 80 % 1034,0 hPa 0,0 l/m 0 min 0 min 9 W/m 0,0 km/h (0 Bft) 96,23 %
04.11.2020 16:56 9,6 C 7,2 C 5,6 C 80 % 1034,0 hPa 0,0 l/m 0 min 0 min 8 W/m 0,0 km/h (0 Bft) 93,75 %
04.11.2020 16:58 9,6 C 7,2 C 5,6 C 80 % 1034,0 hPa 0,0 l/m 0 min 0 min 7 W/m 0,0 km/h (0 Bft) 95,92 %
04.11.2020 17:00 9,5 C 7,2 C 5,6 C 81 % 1034,0 hPa 0,0 l/m 0 min 0 min 6 W/m 0,0 km/h (0 Bft) 93,88 %
04.11.2020 17:02 9,4 C 7,2 C 5,6 C 81 % 1034,0 hPa 0,0 l/m 0 min 0 min 5 W/m 0,0 km/h (0 Bft) 95,92 %
04.11.2020 17:04 9,4 C 7,2 C 5,0 C 81 % 1034,0 hPa 0,0 l/m 0 min 0 min 5 W/m 0,0 km/h (0 Bft) 94,59 %
04.11.2020 17:06 9,3 C 6,7 C 5,0 C 81 % 1034,1 hPa 0,0 l/m 0 min 0 min 2 W/m 0,0 km/h (0 Bft) 95,83 %
04.11.2020 17:08 9,3 C 6,7 C 5,0 C 82 % 1034,2 hPa 0,0 l/m 0 min 0 min 0 W/m 0,0 km/h (0 Bft) 95,83 %
04.11.2020 17:10 9,2 C 6,7 C 5,0 C 82 % 1034,2 hPa 0,0 l/m 0 min 0 min 0 W/m 0,0 km/h (0 Bft) 93,75 %
04.11.2020 17:12 9,1 C 6,1 C 5,0 C 82 % 1034,3 hPa 0,0 l/m 0 min 0 min 0 W/m 0,0 km/h (0 Bft) 95,83 %
04.11.2020 17:14 9,0 C 6,1 C 5,0 C 82 % 1034,3 hPa 0,0 l/m 0 min 0 min 0 W/m 0,0 km/h (0 Bft) 95,74 %
04.11.2020 17:16 9,0 C 6,1 C 5,0 C 82 % 1034,4 hPa 0,0 l/m 0 min 0 min 0 W/m 0,0 km/h (0 Bft) 95,65 %
04.11.2020 17:18 8,9 C 6,1 C 4,5 C 82 % 1034,4 hPa 0,0 l/m 0 min 0 min 0 W/m 0,0 km/h (0 Bft) 95,24 %
04.11.2020 17:20 8,8 C 6,1 C 4,5 C 82 % 1034,5 hPa 0,0 l/m 0 min 0 min 0 W/m 0,0 km/h (0 Bft) 95,92 %
04.11.2020 17:22 8,8 C 6,1 C 4,5 C 83 % 1034,4 hPa 0,0 l/m 0 min 0 min 0 W/m 0,0 km/h (0 Bft) 97,87 %
04.11.2020 17:24 8,6 C 6,1 C 4,5 C 83 % 1034,4 hPa 0,0 l/m 0 min 0 min 0 W/m 0,0 km/h (0 Bft) 97,96 %
04.11.2020 17:26 8,6 C 6,1 C 4,5 C 83 % 1034,4 hPa 0,0 l/m 0 min 0 min 0 W/m 0,0 km/h (0 Bft) 95,83 %
04.11.2020 17:28 8,5 C 6,1 C 4,5 C 83 % 1034,5 hPa 0,0 l/m 0 min 0 min 0 W/m 0,0 km/h (0 Bft) 97,87 %
04.11.2020 17:30 8,5 C 6,1 C 4,5 C 83 % 1034,5 hPa 0,0 l/m 0 min 0 min 0 W/m 0,0 km/h (0 Bft) 95,92 %
04.11.2020 17:32 8,4 C 6,1 C 4,5 C 84 % 1034,5 hPa 0,0 l/m 0 min 0 min 0 W/m 0,0 km/h (0 Bft) 93,88 %
04.11.2020 17:34 8,3 C 5,6 C 4,5 C 84 % 1034,5 hPa 0,0 l/m 0 min 0 min 0 W/m 0,0 km/h (0 Bft) 95,83 %
04.11.2020 17:36 8,2 C 5,6 C 4,5 C 84 % 1034,6 hPa 0,0 l/m 0 min 0 min 0 W/m 0,0 km/h (0 Bft) 100,00 %
04.11.2020 17:38 8,1 C 5,6 C 4,5 C 84 % 1034,5 hPa 0,0 l/m 0 min 0 min 0 W/m 0,0 km/h (0 Bft) 100,00 %
04.11.2020 17:40 8,1 C 5,6 C 4,5 C 84 % 1034,6 hPa 0,0 l/m 0 min 0 min 0 W/m 0,0 km/h (0 Bft) 95,74 %
04.11.2020 17:42 8,0 C 5,6 C 4,5 C 84 % 1034,6 hPa 0,0 l/m 0 min 0 min 0 W/m 0,0 km/h (0 Bft) 97,96 %
04.11.2020 17:44 8,0 C 5,6 C 3,9 C 84 % 1034,7 hPa 0,0 l/m 0 min 0 min 0 W/m 0,0 km/h (0 Bft) 100,00 %
04.11.2020 17:46 7,9 C 5,6 C 3,9 C 85 % 1034,7 hPa 0,0 l/m 0 min 0 min 0 W/m 0,0 km/h (0 Bft) 100,00 %
04.11.2020 17:48 7,8 C 5,6 C 3,9 C 85 % 1034,7 hPa 0,0 l/m 0 min 0 min 0 W/m 0,0 km/h (0 Bft) 100,00 %
04.11.2020 17:50 7,8 C 5,6 C 3,9 C 85 % 1034,7 hPa 0,0 l/m 0 min 0 min 0 W/m 0,0 km/h (0 Bft) 95,74 %
04.11.2020 17:52 7,7 C 5,6 C 3,9 C 85 % 1034,7 hPa 0,0 l/m 0 min 0 min 0 W/m 0,0 km/h (0 Bft) 100,00 %
04.11.2020 17:54 7,6 C 5,6 C 3,9 C 85 % 1034,8 hPa 0,0 l/m 0 min 0 min 0 W/m 0,0 km/h (0 Bft) 100,00 %
04.11.2020 17:56 7,6 C 5,0 C 3,9 C 85 % 1034,8 hPa 0,0 l/m 0 min 0 min 0 W/m 0,0 km/h (0 Bft) 100,00 %
04.11.2020 17:58 7,5 C 5,0 C 3,9 C 86 % 1034,8 hPa 0,0 l/m 0 min 0 min 0 W/m 0,0 km/h (0 Bft) 100,00 %
04.11.2020 18:00 7,4 C 5,0 C 3,9 C 86 % 1034,9 hPa 0,0 l/m 0 min 0 min 0 W/m 0,0 km/h (0 Bft) 95,83 %
04.11.2020 18:02 7,4 C 5,0 C 3,9 C 86 % 1034,8 hPa 0,0 l/m 0 min 0 min 0 W/m 0,0 km/h (0 Bft) 100,00 %
04.11.2020 18:04 7,3 C 5,0 C 3,9 C 86 % 1034,9 hPa 0,0 l/m 0 min 0 min 0 W/m 0,0 km/h (0 Bft) 100,00 %
04.11.2020 18:07 7,3 C 5,0 C 3,9 C 86 % 1034,9 hPa 0,0 l/m 0 min 0 min 0 W/m 0,0 km/h (0 Bft) 100,00 %
04.11.2020 18:08 7,2 C 5,0 C 3,9 C 86 % 1034,9 hPa 0,0 l/m 0 min 0 min 0 W/m 0,0 km/h (0 Bft) 100,00 %
04.11.2020 18:10 7,1 C 4,4 C 3,9 C 86 % 1034,9 hPa 0,0 l/m 0 min 0 min 0 W/m 0,0 km/h (0 Bft) 97,92 %
04.11.2020 18:12 7,1 C 4,4 C 3,4 C 87 % 1034,9 hPa 0,0 l/m 0 min 0 min 0 W/m 0,0 km/h (0 Bft) 100,00 %
04.11.2020 18:14 7,0 C 4,4 C 3,4 C 87 % 1034,9 hPa 0,0 l/m 0 min 0 min 0 W/m 0,0 km/h (0 Bft) 100,00 %
04.11.2020 18:16 7,0 C 4,4 C 3,4 C 87 % 1034,9 hPa 0,0 l/m 0 min 0 min 0 W/m 0,0 km/h (0 Bft) 100,00 %
04.11.2020 18:18 6,9 C 4,4 C 3,4 C 87 % 1034,8 hPa 0,0 l/m 0 min 0 min 0 W/m 0,0 km/h (0 Bft) 97,96 %
04.11.2020 18:20 6,9 C 4,4 C 3,4 C 87 % 1034,9 hPa 0,0 l/m 0 min 0 min 0 W/m 0,0 km/h (0 Bft) 100,00 %
04.11.2020 18:22 6,8 C 4,4 C 3,4 C 87 % 1035,0 hPa 0,0 l/m 0 min 0 min 0 W/m 0,0 km/h (0 Bft) 97,30 %
04.11.2020 18:24 6,8 C 4,4 C 3,4 C 87 % 1035,0 hPa 0,0 l/m 0 min 0 min 0 W/m 0,0 km/h (0 Bft) 97,92 %
04.11.2020 18:26 6,7 C 4,4 C 3,4 C 87 % 1035,0 hPa 0,0 l/m 0 min 0 min 0 W/m 0,0 km/h (0 Bft) 100,00 %
04.11.2020 18:28 6,6 C 4,4 C 3,4 C 87 % 1035,1 hPa 0,0 l/m 0 min 0 min 0 W/m 0,0 km/h (0 Bft) 97,83 %
04.11.2020 18:30 6,6 C 4,4 C 3,4 C 87 % 1035,1 hPa 0,0 l/m 0 min 0 min 0 W/m 0,0 km/h (0 Bft) 98,15 %
04.11.2020 18:32 6,5 C 4,4 C 3,4 C 88 % 1035,1 hPa 0,0 l/m 0 min 0 min 0 W/m 0,0 km/h (0 Bft) 97,44 %
04.11.2020 18:34 6,4 C 4,4 C 3,4 C 88 % 1035,2 hPa 0,0 l/m 0 min 0 min 0 W/m 0,0 km/h (0 Bft) 97,92 %
04.11.2020 18:36 6,4 C 4,4 C 3,4 C 88 % 1035,2 hPa 0,0 l/m 0 min 0 min 0 W/m 0,0 km/h (0 Bft) 95,74 %
04.11.2020 18:38 6,4 C 3,9 C 3,4 C 88 % 1035,2 hPa 0,0 l/m 0 min 0 min 0 W/m 0,0 km/h (0 Bft) 97,87 %
04.11.2020 18:40 6,3 C 3,9 C 3,4 C 88 % 1035,2 hPa 0,0 l/m 0 min 0 min 0 W/m 0,0 km/h (0 Bft) 95,65 %
04.11.2020 18:42 6,3 C 3,9 C 3,4 C 88 % 1035,2 hPa 0,0 l/m 0 min 0 min 0 W/m 0,0 km/h (0 Bft) 95,74 %
04.11.2020 18:44 6,2 C 3,9 C 2,8 C 88 % 1035,3 hPa 0,0 l/m 0 min 0 min 0 W/m 0,0 km/h (0 Bft) 98,15 %
04.11.2020 18:46 6,1 C 3,9 C 2,8 C 88 % 1035,4 hPa 0,0 l/m 0 min 0 min 0 W/m 0,0 km/h (0 Bft) 93,88 %
04.11.2020 18:48 6,1 C 3,9 C 2,8 C 88 % 1035,4 hPa 0,0 l/m 0 min 0 min 0 W/m 0,0 km/h (0 Bft) 95,74 %
04.11.2020 18:50 6,0 C 3,9 C 2,8 C 88 % 1035,5 hPa 0,0 l/m 0 min 0 min 0 W/m 0,0 km/h (0 Bft) 94,44 %
04.11.2020 18:52 6,0 C 3,9 C 2,8 C 88 % 1035,5 hPa 0,0 l/m 0 min 0 min 0 W/m 0,0 km/h (0 Bft) 93,75 %
04.11.2020 18:54 6,0 C 3,9 C 2,8 C 88 % 1035,5 hPa 0,0 l/m 0 min 0 min 0 W/m 0,0 km/h (0 Bft) 97,87 %
04.11.2020 18:56 5,9 C 3,9 C 2,8 C 88 % 1035,5 hPa 0,0 l/m 0 min 0 min 0 W/m 0,0 km/h (0 Bft) 97,87 %
04.11.2020 18:58 5,9 C 3,9 C 2,8 C 88 % 1035,5 hPa 0,0 l/m 0 min 0 min 0 W/m 0,0 km/h (0 Bft) 97,87 %
04.11.2020 19:00 5,8 C 3,9 C 2,8 C 88 % 1035,6 hPa 0,0 l/m 0 min 0 min 0 W/m 0,0 km/h (0 Bft) 98,15 %
04.11.2020 19:02 5,8 C 3,9 C 2,8 C 88 % 1035,6 hPa 0,0 l/m 0 min 0 min 0 W/m 0,0 km/h (0 Bft) 97,92 %
04.11.2020 19:04 5,8 C 3,9 C 2,8 C 88 % 1035,6 hPa 0,0 l/m 0 min 0 min 0 W/m 0,0 km/h (0 Bft) 97,30 %
04.11.2020 19:06 5,7 C 3,9 C 2,8 C 88 % 1035,6 hPa 0,0 l/m 0 min 0 min 0 W/m 0,0 km/h (0 Bft) 97,92 %
04.11.2020 19:08 5,6 C 3,9 C 2,8 C 88 % 1035,7 hPa 0,0 l/m 0 min 0 min 0 W/m 0,0 km/h (0 Bft) 95,74 %
04.11.2020 19:10 5,6 C 3,9 C 2,8 C 88 % 1035,8 hPa 0,0 l/m 0 min 0 min 0 W/m 0,0 km/h (0 Bft) 97,87 %
04.11.2020 19:12 5,5 C 3,3 C 2,8 C 88 % 1035,8 hPa 0,0 l/m 0 min 0 min 0 W/m 0,0 km/h (0 Bft) 97,87 %
04.11.2020 19:14 5,5 C 3,3 C 2,8 C 88 % 1035,9 hPa 0,0 l/m 0 min 0 min 0 W/m 0,0 km/h (0 Bft) 97,83 %
04.11.2020 19:16 5,5 C 3,3 C 2,8 C 88 % 1035,9 hPa 0,0 l/m 0 min 0 min 0 W/m 0,0 km/h (0 Bft) 97,87 %
04.11.2020 19:18 5,4 C 3,3 C 2,8 C 88 % 1035,9 hPa 0,0 l/m 0 min 0 min 0 W/m 0,0 km/h (0 Bft) 97,87 %
04.11.2020 19:20 5,4 C 3,3 C 2,2 C 88 % 1036,0 hPa 0,0 l/m 0 min 0 min 0 W/m 0,0 km/h (0 Bft) 97,87 %
04.11.2020 19:22 5,3 C 3,3 C 2,2 C 88 % 1036,0 hPa 0,0 l/m 0 min 0 min 0 W/m 0,0 km/h (0 Bft) 97,87 %
04.11.2020 19:24 5,3 C 3,3 C 2,2 C 88 % 1036,0 hPa 0,0 l/m 0 min 0 min 0 W/m 0,0 km/h (0 Bft) 95,74 %
04.11.2020 19:26 5,3 C 3,3 C 2,2 C 88 % 1036,0 hPa 0,0 l/m 0 min 0 min 0 W/m 0,0 km/h (0 Bft) 97,83 %
04.11.2020 19:28 5,2 C 3,3 C 2,2 C 88 % 1036,1 hPa 0,0 l/m 0 min 0 min 0 W/m 0,0 km/h (0 Bft) 95,74 %
04.11.2020 19:30 5,2 C 3,3 C 2,2 C 88 % 1036,1 hPa 0,0 l/m 0 min 0 min 0 W/m 0,0 km/h (0 Bft) 97,87 %
04.11.2020 19:32 5,1 C 3,3 C 2,2 C 88 % 1036,2 hPa 0,0 l/m 0 min 0 min 0 W/m 0,0 km/h (0 Bft) 97,87 %
04.11.2020 19:34 5,1 C 3,3 C 2,2 C 88 % 1036,2 hPa 0,0 l/m 0 min 0 min 0 W/m 0,0 km/h (0 Bft) 93,62 %
04.11.2020 19:36 5,1 C 3,3 C 2,2 C 88 % 1036,2 hPa 0,0 l/m 0 min 0 min 0 W/m 0,0 km/h (0 Bft) 95,74 %
04.11.2020 19:38 5,0 C 3,3 C 2,2 C 88 % 1036,2 hPa 0,0 l/m 0 min 0 min 0 W/m 0,0 km/h (0 Bft) 97,83 %
04.11.2020 19:40 5,0 C 3,3 C 2,2 C 88 % 1036,3 hPa 0,0 l/m 0 min 0 min 0 W/m 0,0 km/h (0 Bft) 97,87 %
04.11.2020 19:42 5,0 C 3,3 C 2,2 C 88 % 1036,3 hPa 0,0 l/m 0 min 0 min 0 W/m 0,0 km/h (0 Bft) 95,74 %
04.11.2020 19:44 4,9 C 3,3 C 2,2 C 88 % 1036,4 hPa 0,0 l/m 0 min 0 min 0 W/m 0,0 km/h (0 Bft) 97,87 %
04.11.2020 19:46 4,9 C 3,3 C 2,2 C 88 % 1036,4 hPa 0,0 l/m 0 min 0 min 0 W/m 0,0 km/h (0 Bft) 97,87 %
04.11.2020 19:48 4,9 C 3,3 C 2,2 C 88 % 1036,5 hPa 0,0 l/m 0 min 0 min 0 W/m 0,0 km/h (0 Bft) 97,83 %
04.11.2020 19:50 4,8 C 3,3 C 2,2 C 88 % 1036,4 hPa 0,0 l/m 0 min 0 min 0 W/m 0,0 km/h (0 Bft) 97,87 %
04.11.2020 19:52 4,8 C 3,3 C 2,2 C 88 % 1036,4 hPa 0,0 l/m 0 min 0 min 0 W/m 0,0 km/h (0 Bft) 97,87 %
04.11.2020 19:54 4,8 C 3,9 C 2,2 C 88 % 1036,4 hPa 0,0 l/m 0 min 0 min 0 W/m 0,0 km/h (0 Bft) 95,74 %
04.11.2020 19:56 4,7 C 3,3 C 2,2 C 89 % 1036,5 hPa 0,0 l/m 0 min 0 min 0 W/m 0,0 km/h (0 Bft) 91,49 %
04.11.2020 19:58 4,7 C 3,3 C 2,2 C 89 % 1036,5 hPa 0,0 l/m 0 min 0 min 0 W/m 0,0 km/h (0 Bft) 95,74 %
04.11.2020 20:00 4,6 C 3,3 C 2,2 C 89 % 1036,6 hPa 0,0 l/m 0 min 0 min 0 W/m 0,0 km/h (0 Bft) 95,74 %
04.11.2020 20:02 4,6 C 3,3 C 2,2 C 89 % 1036,6 hPa 0,0 l/m 0 min 0 min 0 W/m 0,0 km/h (0 Bft) 95,65 %
04.11.2020 20:04 4,6 C 3,3 C 2,2 C 88 % 1036,6 hPa 0,0 l/m 0 min 0 min 0 W/m 0,0 km/h (0 Bft) 97,87 %
04.11.2020 20:06 4,6 C 3,3 C 2,2 C 88 % 1036,6 hPa 0,0 l/m 0 min 0 min 0 W/m 0,0 km/h (0 Bft) 97,87 %
04.11.2020 20:08 4,5 C 3,3 C 2,2 C 88 % 1036,6 hPa 0,0 l/m 0 min 0 min 0 W/m 0,0 km/h (0 Bft) 95,74 %
04.11.2020 20:10 4,5 C 3,3 C 2,2 C 88 % 1036,6 hPa 0,0 l/m 0 min 0 min 0 W/m 0,0 km/h (0 Bft) 97,87 %
04.11.2020 20:12 4,5 C 3,3 C 2,2 C 89 % 1036,6 hPa 0,0 l/m 0 min 0 min 0 W/m 0,0 km/h (0 Bft) 97,83 %
04.11.2020 20:14 4,5 C 3,9 C 2,2 C 89 % 1036,6 hPa 0,0 l/m 0 min 0 min 0 W/m 0,0 km/h (0 Bft) 97,87 %
04.11.2020 20:16 4,4 C 3,9 C 2,2 C 89 % 1036,6 hPa 0,0 l/m 0 min 0 min 0 W/m 0,0 km/h (0 Bft) 95,74 %
04.11.2020 20:18 4,4 C 3,9 C 2,2 C 89 % 1036,5 hPa 0,0 l/m 0 min 0 min 0 W/m 0,0 km/h (0 Bft) 85,11 %
04.11.2020 20:20 4,4 C 3,9 C 2,2 C 89 % 1036,5 hPa 0,0 l/m 0 min 0 min 0 W/m 0,0 km/h (0 Bft) 80,85 %
04.11.2020 20:22 4,4 C 3,9 C 2,2 C 89 % 1036,6 hPa 0,0 l/m 0 min 0 min 0 W/m 0,0 km/h (0 Bft) 80,85 %
04.11.2020 20:24 4,4 C 3,3 C 2,2 C 89 % 1036,5 hPa 0,0 l/m 0 min 0 min 0 W/m 0,0 km/h (0 Bft) 89,13 %
04.11.2020 20:26 4,3 C 3,3 C 2,2 C 89 % 1036,5 hPa 0,0 l/m 0 min 0 min 0 W/m 0,0 km/h (0 Bft) 91,49 %
04.11.2020 20:27 4,3 C 3,3 C 2,2 C 89 % 1036,6 hPa 0,0 l/m 0 min 0 min 0 W/m 0,0 km/h (0 Bft) 91,49 %
04.11.2020 20:30 4,3 C 3,3 C 2,2 C 90 % 1036,6 hPa 0,0 l/m 0 min 0 min 0 W/m 0,0 km/h (0 Bft) 97,87 %
04.11.2020 20:32 4,3 C 3,3 C 2,2 C 90 % 1036,6 hPa 0,0 l/m 0 min 0 min 0 W/m 0,0 km/h (0 Bft) 100,00 %
04.11.2020 20:34 4,3 C 2,8 C 2,2 C 90 % 1036,7 hPa 0,0 l/m 0 min 0 min 0 W/m 0,0 km/h (0 Bft) 100,00 %
04.11.2020 20:36 4,3 C 2,8 C 2,2 C 90 % 1036,7 hPa 0,0 l/m 0 min 0 min 0 W/m 0,0 km/h (0 Bft) 93,75 %
04.11.2020 20:38 4,3 C 2,8 C 1,7 C 90 % 1036,7 hPa 0,0 l/m 0 min 0 min 0 W/m 0,0 km/h (0 Bft) 95,83 %
04.11.2020 20:40 4,2 C 2,8 C 1,7 C 90 % 1036,8 hPa 0,0 l/m 0 min 0 min 0 W/m 0,0 km/h (0 Bft) 97,92 %
04.11.2020 20:42 4,2 C 2,8 C 1,7 C 90 % 1036,8 hPa 0,0 l/m 0 min 0 min 0 W/m 0,0 km/h (0 Bft) 100,00 %
04.11.2020 20:44 4,2 C 2,8 C 1,7 C 90 % 1036,9 hPa 0,0 l/m 0 min 0 min 0 W/m 0,0 km/h (0 Bft) 100,00 %
04.11.2020 20:46 4,1 C 2,8 C 1,7 C 90 % 1036,9 hPa 0,0 l/m 0 min 0 min 0 W/m 0,0 km/h (0 Bft) 97,87 %
04.11.2020 20:48 4,1 C 2,8 C 1,7 C 90 % 1036,9 hPa 0,0 l/m 0 min 0 min 0 W/m 0,0 km/h (0 Bft) 100,00 %
04.11.2020 20:50 4,1 C 2,8 C 1,7 C 90 % 1037,0 hPa 0,0 l/m 0 min 0 min 0 W/m 0,0 km/h (0 Bft) 97,92 %
04.11.2020 20:52 4,1 C 2,8 C 1,7 C 90 % 1037,0 hPa 0,0 l/m 0 min 0 min 0 W/m 0,0 km/h (0 Bft) 87,50 %
04.11.2020 20:54 4,1 C 2,8 C 1,7 C 90 % 1037,1 hPa 0,0 l/m 0 min 0 min 0 W/m 0,0 km/h (0 Bft) 89,36 %
04.11.2020 20:56 4,0 C 2,2 C 1,7 C 90 % 1037,1 hPa 0,0 l/m 0 min 0 min 0 W/m 0,0 km/h (0 Bft) 83,33 %
04.11.2020 20:58 4,0 C 2,2 C 1,7 C 90 % 1037,1 hPa 0,0 l/m 0 min 0 min 0 W/m 0,0 km/h (0 Bft) 91,84 %
04.11.2020 21:00 4,0 C 2,2 C 1,7 C 90 % 1037,1 hPa 0,0 l/m 0 min 0 min 0 W/m 0,0 km/h (0 Bft) 97,87 %
04.11.2020 21:02 4,0 C 2,2 C 1,7 C 90 % 1037,2 hPa 0,0 l/m 0 min 0 min 0 W/m 0,0 km/h (0 Bft) 85,37 %
04.11.2020 21:04 4,0 C 2,8 C 1,7 C 90 % 1037,2 hPa 0,0 l/m 0 min 0 min 0 W/m 0,0 km/h (0 Bft) 100,00 %
04.11.2020 21:06 3,9 C 2,8 C 1,7 C 90 % 1037,2 hPa 0,0 l/m 0 min 0 min 0 W/m 0,0 km/h (0 Bft) 95,74 %
04.11.2020 21:08 3,9 C 2,8 C 1,7 C 90 % 1037,3 hPa 0,0 l/m 0 min 0 min 0 W/m 0,0 km/h (0 Bft) 95,65 %
04.11.2020 21:10 3,9 C 2,8 C 1,7 C 90 % 1037,3 hPa 0,0 l/m 0 min 0 min 0 W/m 0,0 km/h (0 Bft) 100,00 %
04.11.2020 21:12 3,9 C 2,8 C 1,7 C 90 % 1037,2 hPa 0,0 l/m 0 min 0 min 0 W/m 0,0 km/h (0 Bft) 100,00 %
04.11.2020 21:14 3,8 C 2,2 C 1,7 C 90 % 1037,2 hPa 0,0 l/m 0 min 0 min 0 W/m 0,0 km/h (0 Bft) 100,00 %
04.11.2020 21:16 3,8 C 2,2 C 1,7 C 90 % 1037,2 hPa 0,0 l/m 0 min 0 min 0 W/m 0,0 km/h (0 Bft) 95,83 %
04.11.2020 21:18 3,8 C 2,2 C 1,7 C 90 % 1037,3 hPa 0,0 l/m 0 min 0 min 0 W/m 0,0 km/h (0 Bft) 100,00 %
04.11.2020 21:20 3,7 C 2,2 C 1,7 C 90 % 1037,2 hPa 0,0 l/m 0 min 0 min 0 W/m 0,0 km/h (0 Bft) 100,00 %
04.11.2020 21:22 3,7 C 2,2 C 1,7 C 91 % 1037,2 hPa 0,0 l/m 0 min 0 min 0 W/m 0,0 km/h (0 Bft) 95,74 %
04.11.2020 21:24 3,6 C 2,2 C 1,7 C 91 % 1037,2 hPa 0,0 l/m 0 min 0 min 0 W/m 0,0 km/h (0 Bft) 97,87 %
04.11.2020 21:26 3,6 C 2,2 C 1,7 C 91 % 1037,2 hPa 0,0 l/m 0 min 0 min 0 W/m 0,0 km/h (0 Bft) 97,87 %
04.11.2020 21:28 3,6 C 2,2 C 1,7 C 91 % 1037,1 hPa 0,0 l/m 0 min 0 min 0 W/m 0,0 km/h (0 Bft) 100,00 %
04.11.2020 21:30 3,6 C 2,2 C 1,1 C 90 % 1037,2 hPa 0,0 l/m 0 min 0 min 0 W/m 0,0 km/h (0 Bft) 100,00 %
04.11.2020 21:32 3,5 C 2,2 C 1,1 C 91 % 1037,2 hPa 0,0 l/m 0 min 0 min 0 W/m 0,0 km/h (0 Bft) 100,00 %
04.11.2020 21:34 3,5 C 2,2 C 1,1 C 91 % 1037,2 hPa 0,0 l/m 0 min 0 min 0 W/m 0,0 km/h (0 Bft) 97,87 %
04.11.2020 21:36 3,5 C 1,7 C 1,1 C 91 % 1037,3 hPa 0,0 l/m 0 min 0 min 0 W/m 0,0 km/h (0 Bft) 93,75 %
04.11.2020 21:38 3,5 C 1,7 C 1,1 C 91 % 1037,3 hPa 0,0 l/m 0 min 0 min 0 W/m 0,0 km/h (0 Bft) 97,92 %
04.11.2020 21:40 3,4 C 1,7 C 1,1 C 91 % 1037,3 hPa 0,0 l/m 0 min 0 min 0 W/m 0,0 km/h (0 Bft) 97,87 %
04.11.2020 21:42 3,4 C 1,7 C 1,1 C 91 % 1037,2 hPa 0,0 l/m 0 min 0 min 0 W/m 0,0 km/h (0 Bft) 97,83 %
04.11.2020 21:44 3,4 C 1,7 C 1,1 C 91 % 1037,2 hPa 0,0 l/m 0 min 0 min 0 W/m 0,0 km/h (0 Bft) 93,62 %
04.11.2020 21:46 3,4 C 1,7 C 1,1 C 91 % 1037,2 hPa 0,0 l/m 0 min 0 min 0 W/m 0,0 km/h (0 Bft) 100,00 %
04.11.2020 21:48 3,3 C 2,2 C 1,1 C 91 % 1037,2 hPa 0,0 l/m 0 min 0 min 0 W/m 0,0 km/h (0 Bft) 97,87 %
04.11.2020 21:50 3,3 C 1,7 C 1,1 C 91 % 1037,1 hPa 0,0 l/m 0 min 0 min 0 W/m 0,0 km/h (0 Bft) 97,87 %
04.11.2020 21:52 3,3 C 1,7 C 1,1 C 91 % 1037,1 hPa 0,0 l/m 0 min 0 min 0 W/m 0,0 km/h (0 Bft) 95,12 %
04.11.2020 21:54 3,3 C 1,7 C 1,1 C 91 % 1037,2 hPa 0,0 l/m 0 min 0 min 0 W/m 0,0 km/h (0 Bft) 95,74 %
04.11.2020 21:56 3,2 C 1,7 C 1,1 C 91 % 1037,2 hPa 0,0 l/m 0 min 0 min 0 W/m 0,0 km/h (0 Bft) 91,30 %
04.11.2020 21:58 3,2 C 1,7 C 1,1 C 91 % 1037,3 hPa 0,0 l/m 0 min 0 min 0 W/m 0,0 km/h (0 Bft) 94,00 %
04.11.2020 22:00 3,1 C 1,7 C 1,1 C 91 % 1037,3 hPa 0,0 l/m 0 min 0 min 0 W/m 0,0 km/h (0 Bft) 70,21 %
04.11.2020 22:02 3,1 C 1,7 C 1,1 C 91 % 1037,4 hPa 0,0 l/m 0 min 0 min 0 W/m 0,0 km/h (0 Bft) 74,00 %
04.11.2020 22:04 3,1 C 1,7 C 1,1 C 91 % 1037,3 hPa 0,0 l/m 0 min 0 min 0 W/m 0,0 km/h (0 Bft) 100,00 %
04.11.2020 22:06 3,1 C 1,7 C 1,1 C 91 % 1037,4 hPa 0,0 l/m 0 min 0 min 0 W/m 0,0 km/h (0 Bft) 100,00 %
04.11.2020 22:08 3,0 C 1,7 C 1,1 C 91 % 1037,4 hPa 0,0 l/m 0 min 0 min 0 W/m 0,0 km/h (0 Bft) 97,87 %
04.11.2020 22:10 3,0 C 1,7 C 1,1 C 91 % 1037,4 hPa 0,0 l/m 0 min 0 min 0 W/m 0,0 km/h (0 Bft) 100,00 %
04.11.2020 22:12 3,0 C 1,7 C 1,1 C 91 % 1037,4 hPa 0,0 l/m 0 min 0 min 0 W/m 0,0 km/h (0 Bft) 97,87 %
04.11.2020 22:14 3,0 C 1,7 C 1,1 C 91 % 1037,4 hPa 0,0 l/m 0 min 0 min 0 W/m 0,0 km/h (0 Bft) 97,87 %
04.11.2020 22:16 3,0 C 1,7 C 1,1 C 91 % 1037,4 hPa 0,0 l/m 0 min 0 min 0 W/m 0,0 km/h (0 Bft) 100,00 %
04.11.2020 22:18 3,0 C 1,7 C 1,1 C 91 % 1037,4 hPa 0,0 l/m 0 min 0 min 0 W/m 0,0 km/h (0 Bft) 100,00 %
04.11.2020 22:20 2,9 C 1,7 C 1,1 C 91 % 1037,4 hPa 0,0 l/m 0 min 0 min 0 W/m 0,0 km/h (0 Bft) 100,00 %
04.11.2020 22:22 2,9 C 1,7 C 1,1 C 91 % 1037,5 hPa 0,0 l/m 0 min 0 min 0 W/m 0,0 km/h (0 Bft) 97,92 %
04.11.2020 22:24 2,9 C 1,7 C 1,1 C 91 % 1037,5 hPa 0,0 l/m 0 min 0 min 0 W/m 0,0 km/h (0 Bft) 100,00 %
04.11.2020 22:26 2,9 C 1,1 C 1,1 C 92 % 1037,5 hPa 0,0 l/m 0 min 0 min 0 W/m 0,0 km/h (0 Bft) 97,92 %
04.11.2020 22:28 2,9 C 1,7 C 1,1 C 92 % 1037,5 hPa 0,0 l/m 0 min 0 min 0 W/m 0,0 km/h (0 Bft) 100,00 %
04.11.2020 22:30 2,8 C 1,7 C 1,1 C 91 % 1037,5 hPa 0,0 l/m 0 min 0 min 0 W/m 0,0 km/h (0 Bft) 100,00 %
04.11.2020 22:32 2,8 C 1,7 C 1,1 C 91 % 1037,5 hPa 0,0 l/m 0 min 0 min 0 W/m 0,0 km/h (0 Bft) 100,00 %
04.11.2020 22:34 2,8 C 1,7 C 1,1 C 91 % 1037,5 hPa 0,0 l/m 0 min 0 min 0 W/m 0,0 km/h (0 Bft) 100,00 %
04.11.2020 22:36 2,8 C 2,2 C 1,1 C 92 % 1037,5 hPa 0,0 l/m 0 min 0 min 0 W/m 0,0 km/h (0 Bft) 100,00 %
04.11.2020 22:38 2,8 C 1,7 C 1,1 C 92 % 1037,6 hPa 0,0 l/m 0 min 0 min 0 W/m 0,0 km/h (0 Bft) 100,00 %
04.11.2020 22:40 2,7 C 1,7 C 1,1 C 92 % 1037,6 hPa 0,0 l/m 0 min 0 min 0 W/m 0,0 km/h (0 Bft) 100,00 %
04.11.2020 22:42 2,7 C 1,7 C 1,1 C 92 % 1037,6 hPa 0,0 l/m 0 min 0 min 0 W/m 0,0 km/h (0 Bft) 100,00 %
04.11.2020 22:44 2,7 C 1,7 C 1,1 C 92 % 1037,6 hPa 0,0 l/m 0 min 0 min 0 W/m 0,0 km/h (0 Bft) 97,87 %
04.11.2020 22:46 2,7 C 1,7 C 1,1 C 92 % 1037,6 hPa 0,0 l/m 0 min 0 min 0 W/m 0,0 km/h (0 Bft) 97,92 %
04.11.2020 22:48 2,6 C 1,1 C 1,1 C 92 % 1037,6 hPa 0,0 l/m 0 min 0 min 0 W/m 0,0 km/h (0 Bft) 95,83 %
04.11.2020 22:50 2,6 C 1,1 C 1,1 C 92 % 1037,6 hPa 0,0 l/m 0 min 0 min 0 W/m 0,0 km/h (0 Bft) 97,92 %
04.11.2020 22:52 2,6 C 1,1 C 1,1 C 92 % 1037,6 hPa 0,0 l/m 0 min 0 min 0 W/m 0,0 km/h (0 Bft) 93,62 %
04.11.2020 22:54 2,6 C 1,1 C 1,1 C 92 % 1037,6 hPa 0,0 l/m 0 min 0 min 0 W/m 0,0 km/h (0 Bft) 93,62 %
04.11.2020 22:56 2,6 C 1,1 C 0,6 C 92 % 1037,6 hPa 0,0 l/m 0 min 0 min 0 W/m 0,0 km/h (0 Bft) 93,75 %
04.11.2020 22:58 2,6 C 1,1 C 0,6 C 92 % 1037,6 hPa 0,0 l/m 0 min 0 min 0 W/m 0,0 km/h (0 Bft) 95,12 %
04.11.2020 23:00 2,5 C 1,1 C 0,6 C 92 % 1037,6 hPa 0,0 l/m 0 min 0 min 0 W/m 0,0 km/h (0 Bft) 95,74 %
04.11.2020 23:02 2,5 C 1,1 C 0,6 C 92 % 1037,6 hPa 0,0 l/m 0 min 0 min 0 W/m 0,0 km/h (0 Bft) 96,00 %
04.11.2020 23:04 2,5 C 1,1 C 0,6 C 92 % 1037,6 hPa 0,0 l/m 0 min 0 min 0 W/m 0,0 km/h (0 Bft) 93,48 %
04.11.2020 23:06 2,5 C 1,1 C 0,6 C 92 % 1037,7 hPa 0,0 l/m 0 min 0 min 0 W/m 0,0 km/h (0 Bft) 91,67 %
04.11.2020 23:08 2,5 C 1,1 C 0,6 C 92 % 1037,7 hPa 0,0 l/m 0 min 0 min 0 W/m 0,0 km/h (0 Bft) 91,67 %
04.11.2020 23:10 2,5 C 1,1 C 0,6 C 92 % 1037,7 hPa 0,0 l/m 0 min 0 min 0 W/m 0,0 km/h (0 Bft) 95,83 %
04.11.2020 23:12 2,5 C 1,1 C 0,6 C 92 % 1037,7 hPa 0,0 l/m 0 min 0 min 0 W/m 0,0 km/h (0 Bft) 93,62 %
04.11.2020 23:14 2,4 C 1,1 C 0,6 C 92 % 1037,8 hPa 0,0 l/m 0 min 0 min 0 W/m 0,0 km/h (0 Bft) 93,48 %
04.11.2020 23:16 2,4 C 1,1 C 0,6 C 92 % 1037,8 hPa 0,0 l/m 0 min 0 min 0 W/m 0,0 km/h (0 Bft) 93,62 %
04.11.2020 23:18 2,4 C 1,1 C 0,6 C 92 % 1037,7 hPa 0,0 l/m 0 min 0 min 0 W/m 0,0 km/h (0 Bft) 93,62 %
04.11.2020 23:20 2,4 C 1,1 C 0,6 C 92 % 1037,7 hPa 0,0 l/m 0 min 0 min 0 W/m 0,0 km/h (0 Bft) 91,49 %
04.11.2020 23:22 2,4 C 1,7 C 0,6 C 92 % 1037,8 hPa 0,0 l/m 0 min 0 min 0 W/m 0,0 km/h (0 Bft) 91,49 %
04.11.2020 23:24 2,4 C 1,7 C 0,6 C 92 % 1037,7 hPa 0,0 l/m 0 min 0 min 0 W/m 0,0 km/h (0 Bft) 91,49 %
04.11.2020 23:26 2,3 C 1,7 C 0,6 C 92 % 1037,8 hPa 0,0 l/m 0 min 0 min 0 W/m 0,0 km/h (0 Bft) 91,30 %
04.11.2020 23:28 2,3 C 1,1 C 0,6 C 92 % 1037,8 hPa 0,0 l/m 0 min 0 min 0 W/m 0,0 km/h (0 Bft) 95,12 %
04.11.2020 23:30 2,3 C 1,1 C 0,6 C 92 % 1037,8 hPa 0,0 l/m 0 min 0 min 0 W/m 0,0 km/h (0 Bft) 91,67 %
04.11.2020 23:32 2,3 C 1,1 C 0,6 C 92 % 1037,8 hPa 0,0 l/m 0 min 0 min 0 W/m 0,0 km/h (0 Bft) 95,74 %
04.11.2020 23:34 2,3 C 1,1 C 0,6 C 93 % 1037,8 hPa 0,0 l/m 0 min 0 min 0 W/m 0,0 km/h (0 Bft) 93,62 %
04.11.2020 23:36 2,3 C 1,1 C 0,6 C 93 % 1037,8 hPa 0,0 l/m 0 min 0 min 0 W/m 0,0 km/h (0 Bft) 93,62 %
04.11.2020 23:38 2,3 C 1,1 C 0,6 C 93 % 1037,8 hPa 0,0 l/m 0 min 0 min 0 W/m 0,0 km/h (0 Bft) 95,83 %
04.11.2020 23:40 2,2 C 1,1 C 0,6 C 93 % 1037,8 hPa 0,0 l/m 0 min 0 min 0 W/m 0,0 km/h (0 Bft) 96,30 %
04.11.2020 23:42 2,2 C 1,1 C 0,6 C 93 % 1037,9 hPa 0,0 l/m 0 min 0 min 0 W/m 0,0 km/h (0 Bft) 95,12 %
04.11.2020 23:44 2,2 C 1,1 C 0,6 C 93 % 1037,9 hPa 0,0 l/m 0 min 0 min 0 W/m 0,0 km/h (0 Bft) 93,75 %
04.11.2020 23:46 2,2 C 0,6 C 0,6 C 93 % 1037,8 hPa 0,0 l/m 0 min 0 min 0 W/m 0,0 km/h (0 Bft) 97,92 %
04.11.2020 23:48 2,1 C 0,6 C 0,6 C 93 % 1037,8 hPa 0,0 l/m 0 min 0 min 0 W/m 0,0 km/h (0 Bft) 95,83 %
04.11.2020 23:50 2,1 C 0,6 C 0,6 C 93 % 1037,9 hPa 0,0 l/m 0 min 0 min 0 W/m 0,0 km/h (0 Bft) 97,87 %
04.11.2020 23:52 2,1 C 1,1 C 0,6 C 93 % 1037,8 hPa 0,0 l/m 0 min 0 min 0 W/m 0,0 km/h (0 Bft) 93,75 %
04.11.2020 23:54 2,1 C 1,1 C 0,6 C 93 % 1037,8 hPa 0,0 l/m 0 min 0 min 0 W/m 0,0 km/h (0 Bft) 97,92 %
04.11.2020 23:56 2,1 C 0,6 C 0,6 C 93 % 1037,7 hPa 0,0 l/m 0 min 0 min 0 W/m 0,0 km/h (0 Bft) 97,87 %
04.11.2020 23:58 2,1 C 0,6 C 0,6 C 93 % 1037,7 hPa 0,0 l/m 0 min 0 min 0 W/m 0,0 km/h (0 Bft) 97,62 %
_ Min-Zeit 23:48 23:46 22:56 14:52 00:00 - - - - 02:12 10:14
Minimum _ 2,1 C 0,6 C 0,6 C 72 % 1026,0 hPa - - - - 0,0 km/h (0 Bft) 54,35 %
_ Max-Zeit 13:16 13:12 12:30 09:06 23:42 00:00 12:07 00:00 13:10 00:12 00:00
Maximum _ 13,3 C 20,6 C 10,0 C 97 % 1037,9 hPa 0,0 l/m 3 min 0 min 491 W/m 19,3 km/h
S (3 Bft)
100,00 %
Durchschnitt _ 6,7 C 6,9 C 4,6 C 89 % 1032,1 hPa #0,0 l/m #5:58 h #0 min. 215 W/m 1,9 km/h (1 Bft) 97,05 %
© 2020 W. Hausmann